FW6030 Weather Reports


time (UTC)temp
F
wind
direction
speed
knots
gust
knots
rain 1hr
in
rain 24hr
in
rain mn
in
humidity
%
barometer
mb
20260905190931 95 360 1.7 8.7 0.00 0.00 0.00 44 1013.9
20260905190835 95 360 1.7 8.7 0.00 0.00 0.00 45 1013.9
20260905190735 95 360 1.7 8.7 0.00 0.00 0.00 45 1014.0
20260905190616 95 360 2.6 11.3 0.00 0.00 0.00 46 1014.0
20260905190517 95 360 3.5 11.3 0.00 0.00 0.00 46 1014.0
20260905190437 94 360 4.3 11.3 0.00 0.00 0.00 45 1014.0
20260905190338 94 360 4.3 11.3 0.00 0.00 0.00 46 1014.0
20260905190237 94 360 5.2 11.3 0.00 0.00 0.00 46 1014.1
20260905190119 94 360 7.0 11.3 0.00 0.00 0.00 46 1014.0
20260905190018 94 360 7.0 11.3 0.00 0.00 0.00 46 1014.1
20260905185919 94 360 7.8 11.3 0.00 0.00 0.00 46 1014.1
20260905185821 95 360 7.0 11.3 0.00 0.00 0.00 46 1014.2
20260905185719 95 360 5.2 9.6 0.00 0.00 0.00 45 1014.1
20260905185619 96 360 4.3 9.6 0.00 0.00 0.00 46 1014.2
20260905185521 96 360 3.5 8.7 0.00 0.00 0.00 46 1014.1
20260905185425 96 360 3.5 8.7 0.00 0.00 0.00 45 1014.1
20260905185325 96 360 3.5 8.7 0.00 0.00 0.00 45 1014.2
20260905185227 96 360 4.3 8.7 0.00 0.00 0.00 45 1014.2
20260905185127 96 360 3.5 8.7 0.00 0.00 0.00 45 1014.3
20260905185028 97 360 3.5 8.7 0.00 0.00 0.00 45 1014.3
20260905184929 97 360 2.6 8.7 0.00 0.00 0.00 45 1014.3
20260905184829 96 360 3.5 8.7 0.00 0.00 0.00 45 1014.3
20260905184734 96 360 4.3 10.4 0.00 0.00 0.00 45 1014.3
20260905184634 96 360 4.3 10.4 0.00 0.00 0.00 46 1014.3
20260905184516 96 360 3.5 10.4 0.00 0.00 0.00 45 1014.3
20260905184437 96 360 3.5 10.4 0.00 0.00 0.00 45 1014.3
20260905184317 97 360 3.5 10.4 0.00 0.00 0.00 45 1014.3
20260905184217 97 360 3.5 10.4 0.00 0.00 0.00 45 1014.4
20260905184122 97 360 3.5 10.4 0.00 0.00 0.00 46 1014.4
20260905184022 96 360 2.6 10.4 0.00 0.00 0.00 45 1014.5
20260905183922 96 360 2.6 10.4 0.00 0.00 0.00 45 1014.6
20260905183823 96 360 1.7 9.6 0.00 0.00 0.00 46 1014.5
20260905183744 95 360 1.7 11.3 0.00 0.00 0.00 47 1014.7
20260905183624 95 360 2.6 11.3 0.00 0.00 0.00 46 1014.7
20260905183546 95 360 2.6 11.3 0.00 0.00 0.00 47 1014.7
20260905183445 95 360 2.6 11.3 0.00 0.00 0.00 47 1014.8
20260905183327 95 360 2.6 11.3 0.00 0.00 0.00 47 1014.8
20260905183228 95 360 3.5 11.3 0.00 0.00 0.00 46 1014.8
20260905183129 94 360 4.3 11.3 0.00 0.00 0.00 46 1014.7
20260905183029 95 360 6.1 11.3 0.00 0.00 0.00 46 1014.8
20260905182929 95 360 6.1 11.3 0.00 0.00 0.00 45 1014.8
20260905182832 96 360 3.5 11.3 0.00 0.00 0.00 45 1014.8
20260905182751 96 360 3.5 9.6 0.00 0.00 0.00 45 1014.8
20260905182652 96 360 4.3 9.6 0.00 0.00 0.00 46 1014.8
20260905182535 96 360 3.5 9.6 0.00 0.00 0.00 45 1015.0
20260905182456 96 360 2.6 9.6 0.00 0.00 0.00 46 1014.8
20260905182355 95 360 0.9 7.0 0.00 0.00 0.00 46 1014.9
20260905182233 95 360 1.7 7.0 0.00 0.00 0.00 46 1014.9
20260905182134 95 360 2.6 10.4 0.00 0.00 0.00 45 1014.9
20260905182035 95 360 2.6 10.4 0.00 0.00 0.00 45 1015.0
20260905181916 94 58 2.6 10.4 0.00 0.00 0.00 46 1015.0
20260905181820 94 11 3.5 10.4 0.00 0.00 0.00 45 1015.0
20260905181721 94 23 3.5 10.4 0.00 0.00 0.00 45 1015.0
20260905181619 94 360 3.5 10.4 0.00 0.00 0.00 46 1015.0
20260905181520 94 360 4.3 11.3 0.00 0.00 0.00 46 1015.0
20260905181420 94 360 3.5 11.3 0.00 0.00 0.00 46 1015.0
20260905181321 94 360 4.3 11.3 0.00 0.00 0.00 47 1015.1
20260905181220 94 360 4.3 11.3 0.00 0.00 0.00 48 1015.1
20260905181125 94 360 5.2 11.3 0.00 0.00 0.00 47 1015.1
20260905181040 93 360 6.1 13.0 0.00 0.00 0.00 47 1015.1
20260905180919 94 360 6.1 13.0 0.00 0.00 0.00 48 1015.2
20260905180821 93 360 6.1 13.0 0.00 0.00 0.00 48 1015.2
20260905180721 93 360 6.1 13.0 0.00 0.00 0.00 48 1015.2
20260905180623 93 360 6.1 13.9 0.00 0.00 0.00 48 1015.3
20260905180523 93 360 7.0 13.9 0.00 0.00 0.00 48 1015.3
20260905180428 93 360 7.0 13.9 0.00 0.00 0.00 48 1015.3
20260905180327 93 360 7.8 13.9 0.00 0.00 0.00 48 1015.3
20260905180228 93 360 8.7 13.9 0.00 0.00 0.00 49 1015.3
20260905180129 93 360 8.7 13.9 0.00 0.00 0.00 49 1015.4
20260905180050 93 165 9.6 13.9 0.00 0.00 0.00 47 1015.3
20260905175930 94 360 10.4 13.9 0.00 0.00 0.00 48 1015.3
20260905175832 94 360 8.7 13.9 0.00 0.00 0.00 48 1015.3
20260905175734 95 360 6.1 13.9 0.00 0.00 0.00 47 1015.3
20260905175635 95 360 2.6 12.2 0.00 0.00 0.00 52 1015.3
20260905175535 95 360 0.9 12.2 0.00 0.00 0.00 52 1015.3
20260905175416 93 360 0.9 12.2 0.00 0.00 0.00 52 1015.4
20260905175317 93 173 1.7 12.2 0.00 0.00 0.00 53 1015.4
20260905175217 92 360 2.6 12.2 0.00 0.00 0.00 53 1015.4
20260905175139 92 360 4.3 12.2 0.00 0.00 0.00 53 1015.4
20260905175023 92 172 4.3 12.2 0.00 0.00 0.00 53 1015.5
20260905174923 92 360 4.3 12.2 0.00 0.00 0.00 54 1015.5
20260905174824 92 360 4.3 12.2 0.00 0.00 0.00 53 1015.5
20260905174724 93 360 5.2 12.2 0.00 0.00 0.00 53 1015.5
20260905174625 93 360 5.2 12.2 0.00 0.00 0.00 53 1015.5
20260905174526 93 360 4.3 12.2 0.00 0.00 0.00 53 1015.5
20260905174431 93 360 3.5 11.3 0.00 0.00 0.00 52 1015.5
20260905174331 93 360 3.5 11.3 0.00 0.00 0.00 52 1015.6
20260905174231 92 360 4.3 11.3 0.00 0.00 0.00 52 1015.5
20260905174132 92 360 5.2 11.3 0.00 0.00 0.00 52 1015.6
20260905174033 92 360 6.1 14.8 0.00 0.00 0.00 52 1015.6
20260905173933 92 360 7.0 14.8 0.00 0.00 0.00 53 1015.6
20260905173818 92 360 7.8 14.8 0.00 0.00 0.00 53 1015.6
20260905173716 92 360 8.7 14.8 0.00 0.00 0.00 53 1015.6
20260905173617 92 360 7.0 14.8 0.00 0.00 0.00 52 1015.6
20260905173538 92 360 7.0 14.8 0.00 0.00 0.00 53 1015.7
20260905173437 92 360 8.7 14.8 0.00 0.00 0.00 53 1015.7
20260905173316 92 360 9.6 14.8 0.00 0.00 0.00 53 1015.6
20260905173216 92 360 7.8 14.8 0.00 0.00 0.00 53 1015.7
20260905173118 93 360 5.2 10.4 0.00 0.00 0.00 53 1015.6
20260905173022 92 360 3.5 9.6 0.00 0.00 0.00 55 1015.6
20260905172921 92 360 3.5 9.6 0.00 0.00 0.00 55 1015.7
20260905172823 92 360 2.6 9.6 0.00 0.00 0.00 57 1015.7
20260905172743 92 360 4.3 9.6 0.00 0.00 0.00 57 1015.8
20260905172623 92 360 3.5 9.6 0.00 0.00 0.00 57 1015.7
20260905172523 92 360 4.3 9.6 0.00 0.00 0.00 57 1015.8
20260905172424 92 360 3.5 7.8 0.00 0.00 0.00 58 1015.8
20260905172344 91 360 2.6 7.8 0.00 0.00 0.00 58 1015.8
20260905172228 91 225 1.7 7.0 0.00 0.00 0.00 58 1015.9
20260905172148 91 360 3.5 9.6 0.00 0.00 0.00 58 1015.9
20260905172027 91 360 4.3 9.6 0.00 0.00 0.00 57 1015.9
20260905171928 91 360 3.5 9.6 0.00 0.00 0.00 57 1015.8
20260905171828 91 360 3.5 9.6 0.00 0.00 0.00 58 1015.9
20260905171729 91 360 3.5 9.6 0.00 0.00 0.00 58 1015.9
20260905171630 91 360 3.5 10.4 0.00 0.00 0.00 58 1016.0
20260905171534 91 360 2.6 10.4 0.00 0.00 0.00 59 1015.9
20260905171433 90 360 3.5 10.4 0.00 0.00 0.00 59 1016.0
20260905171334 90 360 5.2 11.3 0.00 0.00 0.00 58 1015.9
20260905171234 91 360 5.2 11.3 0.00 0.00 0.00 61 1015.9
20260905171155 90 360 4.3 11.3 0.00 0.00 0.00 60 1015.9
20260905171034 90 360 4.3 11.3 0.00 0.00 0.00 60 1015.8
20260905170935 90 360 4.3 11.3 0.00 0.00 0.00 61 1015.9
20260905170855 90 360 5.2 11.3 0.00 0.00 0.00 61 1015.9
20260905170716 90 360 7.0 11.3 0.00 0.00 0.00 61 1015.9
20260905170616 90 360 7.0 11.3 0.00 0.00 0.00 60 1016.0
20260905170517 90 360 7.0 11.3 0.00 0.00 0.00 60 1015.9
20260905170418 90 155 7.0 11.3 0.00 0.00 0.00 60 1015.9
20260905170317 90 360 7.0 11.3 0.00 0.00 0.00 60 1015.9
20260905170218 90 360 7.0 10.4 0.00 0.00 0.00 61 1016.0
20260905170123 90 360 7.0 10.4 0.00 0.00 0.00 61 1015.9
20260905170023 90 360 6.1 10.4 0.00 0.00 0.00 60 1016.0
20260905165923 90 360 5.2 10.4 0.00 0.00 0.00 62 1016.1
20260905165825 90 360 5.2 9.6 0.00 0.00 0.00 61 1016.0
20260905165725 90 360 5.2 9.6 0.00 0.00 0.00 60 1016.0
20260905165646 91 360 5.2 9.6 0.00 0.00 0.00 59 1016.0
20260905165526 91 360 3.5 9.6 0.00 0.00 0.00 58 1016.0
20260905165431 92 360 4.3 9.6 0.00 0.00 0.00 58 1016.1
20260905165332 92 360 5.2 9.6 0.00 0.00 0.00 58 1016.0
20260905165231 93 360 4.3 9.6 0.00 0.00 0.00 57 1016.1
20260905165132 94 360 2.6 9.6 0.00 0.00 0.00 56 1016.1
20260905165032 94 360 0.9 7.0 0.00 0.00 0.00 56 1016.0
20260905164933 94 360 0.9 7.0 0.00 0.00 0.00 57 1016.0
20260905164853 93 360 1.7 7.0 0.00 0.00 0.00 59 1016.1
20260905164736 92 360 2.6 7.0 0.00 0.00 0.00 60 1016.0
20260905164657 91 360 2.6 7.0 0.00 0.00 0.00 60 1016.0
20260905164555 91 360 2.6 9.6 0.00 0.00 0.00 60 1016.1
20260905164434 90 360 3.5 9.6 0.00 0.00 0.00 61 1016.1
20260905164335 90 360 3.5 9.6 0.00 0.00 0.00 60 1016.1
20260905164235 90 360 3.5 9.6 0.00 0.00 0.00 60 1016.1
20260905164135 90 360 2.6 9.6 0.00 0.00 0.00 60 1016.0
20260905164020 90 360 2.6 10.4 0.00 0.00 0.00 62 1016.0
20260905163920 90 360 3.5 10.4 0.00 0.00 0.00 61 1016.0
20260905163820 90 360 4.3 10.4 0.00 0.00 0.00 61 1016.1
20260905163721 90 360 4.3 10.4 0.00 0.00 0.00 61 1016.1
20260905163622 89 360 4.3 10.4 0.00 0.00 0.00 60 1016.1
20260905163542 89 360 3.5 10.4 0.00 0.00 0.00 60 1016.1
20260905163442 89 360 3.5 10.4 0.00 0.00 0.00 59 1016.2
20260905163321 89 360 6.1 10.4 0.00 0.00 0.00 59 1016.2
20260905163226 90 360 6.1 10.4 0.00 0.00 0.00 61 1016.2
20260905163127 90 360 5.2 8.7 0.00 0.00 0.00 62 1016.2
20260905163027 90 360 4.3 8.7 0.00 0.00 0.00 62 1016.1
20260905162929 90 360 2.6 8.7 0.00 0.00 0.00 63 1016.1
20260905162832 89 360 2.6 8.7 0.00 0.00 0.00 63 1016.1
20260905162732 89 360 2.6 8.7 0.00 0.00 0.00 63 1016.1
20260905162617 89 360 3.5 10.4 0.00 0.00 0.00 64 1016.1
20260905162537 89 360 4.3 10.4 0.00 0.00 0.00 63 1016.2
20260905162416 88 360 4.3 10.4 0.00 0.00 0.00 62 1016.1
20260905162317 89 360 5.2 12.2 0.00 0.00 0.00 62 1016.1
20260905162218 88 360 3.5 12.2 0.00 0.00 0.00 63 1016.2
20260905162117 88 360 3.5 12.2 0.00 0.00 0.00 63 1016.1
20260905162017 88 360 4.3 12.2 0.00 0.00 0.00 64 1016.2
20260905161917 88 360 6.1 12.2 0.00 0.00 0.00 64 1016.1
20260905161822 88 360 7.8 14.8 0.00 0.00 0.00 64 1016.2
20260905161742 88 360 7.8 14.8 0.00 0.00 0.00 65 1016.2
20260905161622 88 360 7.8 14.8 0.00 0.00 0.00 65 1016.1
20260905161521 88 151 5.2 14.8 0.00 0.00 0.00 66 1016.2
20260905161443 88 360 4.3 14.8 0.00 0.00 0.00 66 1016.2
20260905161316 88 360 3.5 14.8 0.00 0.00 0.00 66 1016.1
20260905161216 88 360 6.1 14.8 0.00 0.00 0.00 65 1016.2
20260905161120 88 360 7.0 14.8 0.00 0.00 0.00 65 1016.2
20260905161042 88 360 7.0 12.2 0.00 0.00 0.00 65 1016.2
20260905160920 88 360 4.3 9.6 0.00 0.00 0.00 65 1016.1
20260905160821 88 360 3.5 9.6 0.00 0.00 0.00 66 1016.1
20260905160721 88 360 5.2 9.6 0.00 0.00 0.00 66 1016.2
20260905160642 88 360 6.1 9.6 0.00 0.00 0.00 66 1016.2
20260905160521 88 360 5.2 9.6 0.00 0.00 0.00 66 1016.2
20260905160420 89 360 4.3 9.6 0.00 0.00 0.00 66 1016.1
20260905160325 89 360 4.3 9.6 0.00 0.00 0.00 66 1016.2
20260905160246 89 360 5.2 9.6 0.00 0.00 0.00 66 1016.2
20260905160125 89 360 5.2 9.6 0.00 0.00 0.00 66 1016.1
20260905160025 90 165 5.2 8.7 0.00 0.00 0.00 65 1016.1
20260905155926 90 360 4.3 8.7 0.00 0.00 0.00 65 1016.2
20260905155848 90 360 3.5 8.7 0.00 0.00 0.00 64 1016.1
20260905155725 91 360 2.6 8.7 0.00 0.00 0.00 65 1016.1
20260905155626 91 360 1.7 3.5 0.00 0.00 0.00 66 1016.1
20260905155531 90 360 1.7 4.3 0.00 0.00 0.00 66 1016.1
20260905155430 90 360 1.7 4.3 0.00 0.00 0.00 66 1016.1
20260905155330 90 360 0.9 4.3 0.00 0.00 0.00 68 1016.1
20260905155231 89 360 1.7 5.2 0.00 0.00 0.00 70 1016.1
20260905155151 89 360 1.7 7.0 0.00 0.00 0.00 70 1016.2
20260905155051 88 360 1.7 7.0 0.00 0.00 0.00 70 1016.2
20260905154931 88 360 2.6 7.8 0.00 0.00 0.00 70 1016.1
20260905154831 87 360 1.7 7.8 0.00 0.00 0.00 71 1016.1
20260905154735 86 360 2.6 7.8 0.00 0.00 0.00 71 1016.1
20260905154636 86 360 1.7 10.4 0.00 0.00 0.00 71 1016.2
20260905154556 86 360 2.6 10.4 0.00 0.00 0.00 72 1016.1
20260905154416 86 188 3.5 10.4 0.00 0.00 0.00 71 1016.2
20260905154317 86 360 3.5 10.4 0.00 0.00 0.00 73 1016.1
20260905154217 86 360 3.5 10.4 0.00 0.00 0.00 72 1016.1
20260905154117 86 360 5.2 10.4 0.00 0.00 0.00 74 1016.1
20260905154022 85 360 5.2 10.4 0.00 0.00 0.00 74 1016.2
20260905153943 85 360 6.1 10.4 0.00 0.00 0.00 73 1016.2
20260905153823 85 360 5.2 10.4 0.00 0.00 0.00 72 1016.2
20260905153724 85 360 4.3 10.4 0.00 0.00 0.00 72 1016.2
20260905153622 86 360 3.5 10.4 0.00 0.00 0.00 72 1016.1
20260905153523 86 360 2.6 10.4 0.00 0.00 0.00 72 1016.1
20260905153423 86 360 3.5 10.4 0.00 0.00 0.00 73 1016.2
20260905153324 86 360 4.3 13.0 0.00 0.00 0.00 73 1016.1
20260905153229 86 360 4.3 13.0 0.00 0.00 0.00 73 1016.1
20260905153130 85 360 4.3 13.0 0.00 0.00 0.00 73 1016.2
20260905153030 85 360 5.2 13.0 0.00 0.00 0.00 73 1016.1
20260905152931 85 360 5.2 13.0 0.00 0.00 0.00 74 1016.1
20260905152832 85 360 6.1 13.0 0.00 0.00 0.00 73 1016.1
20260905152733 86 360 7.8 13.0 0.00 0.00 0.00 73 1016.1
20260905152616 86 360 6.1 13.0 0.00 0.00 0.00 73 1016.2
20260905152517 86 360 4.3 13.0 0.00 0.00 0.00 73 1016.2
20260905152416 86 360 2.6 9.6 0.00 0.00 0.00 75 1016.1
20260905152317 86 360 2.6 9.6 0.00 0.00 0.00 75 1016.2
20260905152218 86 360 3.5 9.6 0.00 0.00 0.00 76 1016.1
20260905152138 85 360 4.3 9.6 0.00 0.00 0.00 76 1016.1
20260905152018 85 360 4.3 9.6 0.00 0.00 0.00 76 1016.2
20260905151922 85 360 4.3 9.6 0.00 0.00 0.00 76 1016.2
20260905151822 85 360 5.2 9.6 0.00 0.00 0.00 77 1016.2
20260905151743 84 360 5.2 9.6 0.00 0.00 0.00 77 1016.2
20260905151643 84 360 4.3 9.6 0.00 0.00 0.00 77 1016.2
20260905151516 84 360 2.6 9.6 0.00 0.00 0.00 77 1016.2
20260905151417 84 360 1.7 8.7 0.00 0.00 0.00 78 1016.2
20260905151317 83 166 2.6 9.6 0.00 0.00 0.00 78 1016.3
20260905151222 83 360 3.5 9.6 0.00 0.00 0.00 78 1016.3
20260905151121 83 360 3.5 9.6 0.00 0.00 0.00 78 1016.2
20260905151042 83 360 4.3 9.6 0.00 0.00 0.00 78 1016.2
20260905150922 83 360 3.5 9.6 0.00 0.00 0.00 78 1016.2
20260905150823 83 360 3.5 9.6 0.00 0.00 0.00 78 1016.3
20260905150725 83 360 3.5 9.6 0.00 0.00 0.00 78 1016.3
20260905150624 83 360 4.3 9.6 0.00 0.00 0.00 78 1016.3
20260905150529 83 360 5.2 9.6 0.00 0.00 0.00 78 1016.3
20260905150430 83 360 5.2 9.6 0.00 0.00 0.00 77 1016.3
20260905150331 84 360 4.3 9.6 0.00 0.00 0.00 77 1016.2
20260905150251 84 360 5.2 9.6 0.00 0.00 0.00 77 1016.3
20260905150131 84 360 4.3 9.6 0.00 0.00 0.00 77 1016.3
20260905150031 85 360 5.2 9.6 0.00 0.00 0.00 77 1016.3
20260905145930 85 360 4.3 9.6 0.00 0.00 0.00 79 1016.2
20260905145832 85 360 3.5 9.6 0.00 0.00 0.00 79 1016.2
20260905145716 84 360 3.5 9.6 0.00 0.00 0.00 78 1016.2
20260905145616 84 360 4.3 9.6 0.00 0.00 0.00 78 1016.2
20260905145518 84 360 5.2 9.6 0.00 0.00 0.00 78 1016.2
20260905145418 84 360 5.2 9.6 0.00 0.00 0.00 78 1016.2
20260905145318 84 360 4.3 9.6 0.00 0.00 0.00 78 1016.2
20260905145219 85 360 3.5 7.8 0.00 0.00 0.00 78 1016.2
20260905145123 85 360 2.6 7.8 0.00 0.00 0.00 78 1016.1
20260905145044 85 360 1.7 7.8 0.00 0.00 0.00 79 1016.1
20260905144923 85 360 0.9 7.0 0.00 0.00 0.00 79 1016.1
20260905144824 84 360 0.0 7.0 0.00 0.00 0.00 80 1016.1
20260905144723 84 360 0.9 7.0 0.00 0.00 0.00 81 1016.1
20260905144624 83 360 1.7 7.0 0.00 0.00 0.00 81 1016.1
20260905144524 83 360 1.7 8.7 0.00 0.00 0.00 82 1016.1
20260905144429 82 360 1.7 9.6 0.00 0.00 0.00 82 1016.0
20260905144328 82 360 1.7 9.6 0.00 0.00 0.00 82 1016.1
20260905144249 82 360 2.6 9.6 0.00 0.00 0.00 82 1016.1
20260905144147 82 360 2.6 9.6 0.00 0.00 0.00 82 1016.1
20260905144028 82 360 3.5 9.6 0.00 0.00 0.00 82 1016.1
20260905143928 82 360 4.3 9.6 0.00 0.00 0.00 82 1016.0
20260905143829 82 360 4.3 9.6 0.00 0.00 0.00 82 1016.1
20260905143733 82 360 4.3 9.6 0.00 0.00 0.00 82 1016.1
20260905143653 82 360 4.3 9.6 0.00 0.00 0.00 82 1016.1
20260905143553 82 360 5.2 9.6 0.00 0.00 0.00 82 1016.1
20260905143433 82 360 5.2 9.6 0.00 0.00 0.00 82 1016.1
20260905143334 82 360 5.2 9.6 0.00 0.00 0.00 82 1016.1
20260905143235 82 360 5.2 10.4 0.00 0.00 0.00 82 1016.1
20260905143135 82 360 5.2 10.4 0.00 0.00 0.00 82 1016.1
20260905143019 82 360 4.3 10.4 0.00 0.00 0.00 82 1016.0
20260905142939 82 178 4.3 10.4 0.00 0.00 0.00 82 1015.9
20260905142821 82 360 3.5 10.4 0.00 0.00 0.00 83 1016.0
20260905142722 82 176 3.5 10.4 0.00 0.00 0.00 83 1016.1
20260905142622 82 360 4.3 10.4 0.00 0.00 0.00 83 1016.0
20260905142523 82 360 6.1 10.4 0.00 0.00 0.00 83 1016.1
20260905142444 82 360 6.1 10.4 0.00 0.00 0.00 82 1016.0
20260905142324 82 360 5.2 10.4 0.00 0.00 0.00 82 1016.1
20260905142228 82 360 5.2 10.4 0.00 0.00 0.00 83 1016.1
20260905142129 82 360 3.5 7.8 0.00 0.00 0.00 84 1016.1
20260905142029 82 360 3.5 7.8 0.00 0.00 0.00 84 1016.1
20260905141929 82 360 3.5 7.8 0.00 0.00 0.00 85 1016.0
20260905141849 82 360 3.5 7.8 0.00 0.00 0.00 85 1016.0
20260905141728 82 360 4.3 7.8 0.00 0.00 0.00 85 1016.0
20260905141628 82 159 3.5 7.8 0.00 0.00 0.00 85 1016.0
20260905141553 82 360 2.6 7.8 0.00 0.00 0.00 86 1016.0
20260905141432 81 166 3.5 7.8 0.00 0.00 0.00 86 1016.0
20260905141353 81 360 4.3 7.8 0.00 0.00 0.00 85 1016.0
20260905141232 81 161 4.3 7.8 0.00 0.00 0.00 86 1015.9
20260905141133 81 360 2.6 7.0 0.00 0.00 0.00 86 1016.0
20260905141032 81 360 2.6 8.7 0.00 0.00 0.00 87 1015.9
20260905140933 81 360 2.6 8.7 0.00 0.00 0.00 87 1015.8
20260905140837 81 360 2.6 8.7 0.00 0.00 0.00 87 1015.9
20260905140758 81 360 1.7 8.7 0.00 0.00 0.00 88 1015.8
20260905140636 80 360 1.7 8.7 0.00 0.00 0.00 88 1015.8
20260905140516 80 360 2.6 8.7 0.00 0.00 0.00 87 1015.8
20260905140417 80 360 4.3 8.7 0.00 0.00 0.00 87 1015.9
20260905140318 80 360 5.2 8.7 0.00 0.00 0.00 87 1015.8
20260905140240 80 360 4.3 8.7 0.00 0.00 0.00 88 1015.9
20260905140119 80 360 2.6 4.3 0.00 0.00 0.00 88 1015.9
20260905140023 80 360 1.7 4.3 0.00 0.00 0.00 88 1015.9
20260905135924 80 360 0.9 2.6 0.00 0.00 0.00 89 1015.9
20260905135825 80 360 0.9 2.6 0.00 0.00 0.00 89 1015.8
20260905135726 80 360 1.7 2.6 0.00 0.00 0.00 89 1015.9
20260905135626 80 360 0.9 2.6 0.00 0.00 0.00 89 1015.9
20260905135527 80 360 0.9 2.6 0.00 0.00 0.00 89 1015.8
20260905135448 80 360 0.9 2.6 0.00 0.00 0.00 89 1015.9
20260905135332 80 360 0.9 2.6 0.00 0.00 0.00 89 1015.9
20260905135233 80 165 0.9 3.5 0.00 0.00 0.00 89 1015.8
20260905135134 79 360 0.9 1.7 0.00 0.00 0.00 89 1015.8
20260905135034 79 165 0.9 1.7 0.00 0.00 0.00 89 1015.8
20260905134935 79 360 0.9 2.6 0.00 0.00 0.00 89 1015.8
20260905134816 79 165 0.9 2.6 0.00 0.00 0.00 89 1015.8
20260905134722 79 360 0.9 2.6 0.00 0.00 0.00 89 1015.8
20260905134622 79 360 0.9 2.6 0.00 0.00 0.00 90 1015.8
20260905134542 79 360 0.9 2.6 0.00 0.00 0.00 90 1015.8
20260905134416 79 360 0.9 2.6 0.00 0.00 0.00 90 1015.9
20260905134316 79 360 0.0 2.6 0.00 0.00 0.00 90 1015.8
20260905134217 79 360 0.9 2.6 0.00 0.00 0.00 90 1015.8
20260905134122 79 360 0.9 2.6 0.00 0.00 0.00 90 1015.8
20260905134022 79 360 1.7 2.6 0.00 0.00 0.00 90 1015.8
20260905133922 79 360 0.9 2.6 0.00 0.00 0.00 90 1015.7
20260905133824 79 360 0.9 2.6 0.00 0.00 0.00 90 1015.8
20260905133723 79 360 0.9 4.3 0.00 0.00 0.00 90 1015.8
20260905133624 79 360 0.9 4.3 0.00 0.00 0.00 90 1015.8
20260905133524 78 360 1.7 4.3 0.00 0.00 0.00 91 1015.7
20260905133429 78 360 1.7 4.3 0.00 0.00 0.00 91 1015.7
20260905133329 78 360 1.7 4.3 0.00 0.00 0.00 91 1015.7
20260905133229 78 360 1.7 4.3 0.00 0.00 0.00 91 1015.6
20260905133150 78 360 1.7 4.3 0.00 0.00 0.00 91 1015.8
20260905133049 78 360 2.6 4.3 0.00 0.00 0.00 91 1015.7
20260905132928 78 360 2.6 4.3 0.00 0.00 0.00 91 1015.7
20260905132829 78 360 2.6 3.5 0.00 0.00 0.00 91 1015.7
20260905132729 78 360 2.6 3.5 0.00 0.00 0.00 91 1015.8
20260905132654 78 360 1.7 3.5 0.00 0.00 0.00 91 1015.8
20260905132533 78 360 1.7 2.6 0.00 0.00 0.00 91 1015.7
20260905132433 78 179 1.7 2.6 0.00 0.00 0.00 91 1015.8
20260905132352 78 360 0.9 2.6 0.00 0.00 0.00 91 1015.6
20260905132232 78 186 0.0 1.7 0.00 0.00 0.00 91 1015.7
20260905132131 78 360 0.0 1.7 0.00 0.00 0.00 91 1015.6
20260905132052 78 186 0.9 1.7 0.00 0.00 0.00 91 1015.6
20260905131930 78 186 0.9 1.7 0.00 0.00 0.00 91 1015.6
20260905131831 78 360 0.9 1.7 0.00 0.00 0.00 91 1015.6
20260905131751 78 360 0.9 1.7 0.00 0.00 0.00 91 1015.6
20260905131633 78 360 0.9 1.7 0.00 0.00 0.00 91 1015.6
20260905131534 77 360 0.9 1.7 0.00 0.00 0.00 91 1015.5
20260905131435 77 360 0.9 1.7 0.00 0.00 0.00 91 1015.5
20260905131336 77 360 0.9 1.7 0.00 0.00 0.00 91 1015.5
20260905131216 77 360 0.9 1.7 0.00 0.00 0.00 91 1015.5
20260905131117 77 360 0.9 1.7 0.00 0.00 0.00 91 1015.5
20260905131021 77 360 0.9 1.7 0.00 0.00 0.00 91 1015.4
20260905130921 77 186 0.0 1.7 0.00 0.00 0.00 91 1015.5
20260905130823 77 186 0.0 0.9 0.00 0.00 0.00 91 1015.4
20260905130723 77 360 0.0 0.9 0.00 0.00 0.00 91 1015.5
20260905130624 77 360 0.0 0.9 0.00 0.00 0.00 91 1015.5
20260905130545 77 360 0.0 1.7 0.00 0.00 0.00 91 1015.5
20260905130444 77 360 0.0 1.7 0.00 0.00 0.00 91 1015.4
20260905130323 77 360 0.0 3.5 0.00 0.00 0.00 91 1015.4
20260905130242 77 360 0.0 3.5 0.00 0.00 0.00 91 1015.4
20260905130126 77 360 0.0 3.5 0.00 0.00 0.00 91 1015.4
20260905130027 77 360 0.0 3.5 0.00 0.00 0.00 91 1015.4
20260905125928 77 360 0.0 3.5 0.00 0.00 0.00 91 1015.5
20260905125849 77 360 0.0 3.5 0.00 0.00 0.00 91 1015.4
20260905125727 76 360 0.0 3.5 0.00 0.00 0.00 91 1015.4
20260905125628 76 360 0.9 3.5 0.00 0.00 0.00 91 1015.4
20260905125529 76 360 0.9 3.5 0.00 0.00 0.00 91 1015.3
20260905125434 76 186 0.9 3.5 0.00 0.00 0.00 91 1015.4
20260905125334 76 186 0.9 3.5 0.00 0.00 0.00 91 1015.3
20260905125234 76 360 0.0 0.0 0.00 0.00 0.00 91 1015.3
20260905125135 76 360 0.0 0.0 0.00 0.00 0.00 91 1015.3
20260905125036 76 360 0.0 0.0 0.00 0.00 0.00 91 1015.2
20260905124935 76 360 0.0 0.0 0.00 0.00 0.00 91 1015.2
20260905124820 76 360 0.0 0.0 0.00 0.00 0.00 91 1015.2
20260905124741 76 360 0.0 0.0 0.00 0.00 0.00 91 1015.2
20260905124621 76 360 0.0 0.0 0.00 0.00 0.00 91 1015.2
20260905124519 76 360 0.0 0.0 0.00 0.00 0.00 91 1015.2
20260905124420 76 360 0.0 0.0 0.00 0.00 0.00 91 1015.2
20260905124320 75 360 0.0 0.0 0.00 0.00 0.00 91 1015.1
20260905124220 75 185 0.0 0.0 0.00 0.00 0.00 91 1015.1
20260905124141 75 360 0.0 0.0 0.00 0.00 0.00 91 1015.2
20260905124041 75 185 0.0 0.0 0.00 0.00 0.00 91 1015.1
20260905123925 75 185 0.0 0.0 0.00 0.00 0.00 91 1015.1
20260905123825 75 185 0.0 0.0 0.00 0.00 0.00 91 1015.1
20260905123724 75 360 0.0 0.0 0.00 0.00 0.00 91 1015.1
20260905123624 75 185 0.0 0.0 0.00 0.00 0.00 91 1015.1
20260905123523 75 185 0.0 0.0 0.00 0.00 0.00 91 1015.1
20260905123423 75 185 0.0 0.0 0.00 0.00 0.00 91 1015.2
20260905123324 75 185 0.0 0.0 0.00 0.00 0.00 91 1015.1
20260905123228 75 185 0.0 0.0 0.00 0.00 0.00 91 1015.1
20260905123129 75 185 0.0 0.0 0.00 0.00 0.00 91 1015.1
20260905123030 75 185 0.0 0.0 0.00 0.00 0.00 91 1015.1
20260905122931 75 185 0.0 0.0 0.00 0.00 0.00 91 1015.1
20260905122833 75 185 0.0 0.0 0.00 0.00 0.00 91 1015.2
20260905122733 75 185 0.0 0.0 0.00 0.00 0.00 91 1015.1
20260905122617 75 185 0.0 0.0 0.00 0.00 0.00 91 1015.1
20260905122517 75 185 0.0 0.0 0.00 0.00 0.00 90 1015.2
20260905122419 75 185 0.0 0.0 0.00 0.00 0.00 90 1015.1
20260905122319 75 185 0.0 0.0 0.00 0.00 0.00 90 1015.2
20260905122221 75 185 0.0 0.0 0.00 0.00 0.00 90 1015.2
20260905122121 75 185 0.0 0.0 0.00 0.00 0.00 91 1015.1
20260905122021 75 185 0.0 0.0 0.00 0.00 0.00 91 1015.2
20260905121926 75 185 0.0 0.0 0.00 0.00 0.00 90 1015.1
20260905121847 75 185 0.0 0.0 0.00 0.00 0.00 90 1015.1
20260905121726 75 185 0.0 0.0 0.00 0.00 0.00 90 1015.1
20260905121627 75 185 0.0 0.0 0.00 0.00 0.00 90 1015.2
20260905121526 75 185 0.0 0.0 0.00 0.00 0.00 90 1015.1
20260905121447 75 360 0.0 0.0 0.00 0.00 0.00 90 1015.1
20260905121327 75 185 0.0 0.0 0.00 0.00 0.00 90 1015.1
20260905121232 75 185 0.0 0.0 0.00 0.00 0.00 90 1015.1
20260905121132 75 185 0.0 0.0 0.00 0.00 0.00 90 1015.1
20260905121033 76 185 0.0 0.0 0.00 0.00 0.00 90 1015.0
20260905120934 76 185 0.0 0.0 0.00 0.00 0.00 90 1015.0
20260905120835 76 360 0.0 0.0 0.00 0.00 0.00 90 1015.0
20260905120735 76 360 0.0 0.0 0.00 0.00 0.00 90 1015.0
20260905120620 76 360 0.0 0.0 0.00 0.00 0.00 90 1015.0
20260905120519 76 360 0.0 0.0 0.00 0.00 0.00 90 1015.0
20260905120421 76 360 0.0 0.0 0.00 0.00 0.00 90 1014.9
20260905120321 76 360 0.0 0.0 0.00 0.00 0.00 90 1015.0
20260905120242 76 360 0.0 0.0 0.00 0.00 0.00 90 1015.0
20260905120121 76 360 0.0 0.0 0.00 0.00 0.00 90 1015.0
20260905120021 76 360 0.0 0.0 0.00 0.00 0.00 90 1015.0
20260905115921 76 185 0.0 0.0 0.00 0.00 0.00 90 1015.0
20260905115827 76 360 0.0 0.0 0.00 0.00 0.00 90 1015.0
20260905115727 76 185 0.0 0.0 0.00 0.00 0.00 90 1015.0
20260905115646 76 185 0.0 0.0 0.00 0.00 0.00 90 1015.1
20260905115526 76 360 0.0 0.0 0.00 0.00 0.00 90 1015.0
20260905115427 76 360 0.0 0.0 0.00 0.00 0.00 90 1015.0
20260905115327 76 360 0.0 0.0 0.00 0.00 0.00 90 1015.1
20260905115228 76 360 0.0 0.0 0.00 0.00 0.00 90 1015.1
20260905115133 76 360 0.0 0.0 0.00 0.00 0.00 90 1015.0
20260905115034 76 360 0.0 0.0 0.00 0.00 0.00 90 1015.0
20260905114935 76 360 0.0 0.0 0.00 0.00 0.00 90 1015.0
20260905114836 76 360 0.0 0.0 0.00 0.00 0.00 90 1014.9
20260905114717 76 360 0.0 0.0 0.00 0.00 0.00 90 1014.9
20260905114617 76 360 0.0 0.0 0.00 0.00 0.00 90 1014.9
20260905114520 76 360 0.0 0.0 0.00 0.00 0.00 90 1014.9
20260905114421 76 360 0.0 0.0 0.00 0.00 0.00 90 1015.0
20260905114321 76 360 0.0 0.0 0.00 0.00 0.00 90 1014.9
20260905114242 76 185 0.0 0.0 0.00 0.00 0.00 90 1014.8
20260905114123 76 185 0.0 0.0 0.00 0.00 0.00 90 1014.8
20260905114045 75 185 0.0 0.0 0.00 0.00 0.00 90 1014.7
20260905113925 76 360 0.0 0.0 0.00 0.00 0.00 90 1014.8
20260905113825 75 360 0.0 0.0 0.00 0.00 0.00 90 1014.8
20260905113750 76 185 0.0 0.0 0.00 0.00 0.00 90 1014.8
20260905113631 76 185 0.0 0.0 0.00 0.00 0.00 90 1014.7
20260905113552 76 185 0.0 0.0 0.00 0.00 0.00 90 1014.8
20260905113452 76 185 0.0 0.0 0.00 0.00 0.00 90 1014.7
20260905113352 76 360 0.0 0.0 0.00 0.00 0.00 89 1014.8
20260905113231 76 360 0.0 0.0 0.00 0.00 0.00 89 1014.8
20260905113132 76 360 0.0 0.0 0.00 0.00 0.00 90 1014.7
20260905113033 76 360 0.0 0.0 0.00 0.00 0.00 90 1014.8
20260905112918 76 360 0.0 0.0 0.00 0.00 0.00 90 1014.8
20260905112819 76 360 0.0 0.0 0.00 0.00 0.00 90 1014.8
20260905112720 76 360 0.0 0.0 0.00 0.00 0.00 90 1014.8
20260905112641 76 360 0.0 0.0 0.00 0.00 0.00 90 1014.8
20260905112520 76 360 0.0 0.0 0.00 0.00 0.00 89 1014.8
20260905112421 76 360 0.0 0.0 0.00 0.00 0.00 89 1014.8
20260905112321 76 360 0.0 0.0 0.00 0.00 0.00 89 1014.8
20260905112246 76 360 0.0 0.0 0.00 0.00 0.00 89 1014.8
20260905112125 76 360 0.0 0.0 0.00 0.00 0.00 89 1014.8
20260905112025 76 360 0.0 0.0 0.00 0.00 0.00 89 1014.7
20260905111927 76 360 0.0 0.0 0.00 0.00 0.00 89 1014.7
20260905111828 76 360 0.0 0.0 0.00 0.00 0.00 89 1014.7
20260905111728 76 360 0.0 0.0 0.00 0.00 0.00 89 1014.7
20260905111630 76 360 0.0 0.0 0.00 0.00 0.00 89 1014.7
20260905111534 76 360 0.0 0.0 0.00 0.00 0.00 89 1014.6
20260905111435 76 360 0.0 0.0 0.00 0.00 0.00 89 1014.6
20260905111335 76 360 0.0 0.0 0.00 0.00 0.00 89 1014.7
20260905111235 76 360 0.0 0.0 0.00 0.00 0.00 89 1014.6
20260905111117 76 360 0.0 0.0 0.00 0.00 0.00 89 1014.7
20260905111038 76 360 0.0 0.0 0.00 0.00 0.00 89 1014.7
20260905110922 76 360 0.0 0.0 0.00 0.00 0.00 89 1014.6
20260905110822 76 360 0.0 0.0 0.00 0.00 0.00 89 1014.6
20260905110723 76 360 0.0 0.0 0.00 0.00 0.00 89 1014.6
20260905110625 76 360 0.0 0.0 0.00 0.00 0.00 89 1014.7
20260905110526 76 360 0.0 0.0 0.00 0.00 0.00 89 1014.7
20260905110425 76 360 0.0 0.0 0.00 0.00 0.00 89 1014.7
20260905110326 76 360 0.0 0.0 0.00 0.00 0.00 89 1014.7
20260905110250 76 360 0.0 0.0 0.00 0.00 0.00 89 1014.6
20260905110130 76 360 0.0 0.0 0.00 0.00 0.00 89 1014.6
20260905110029 76 360 0.0 0.0 0.00 0.00 0.00 89 1014.6
20260905105930 76 360 0.0 0.0 0.00 0.00 0.00 89 1014.6
20260905105832 76 360 0.0 0.0 0.00 0.00 0.00 89 1014.6
20260905105752 76 360 0.0 0.0 0.00 0.00 0.00 89 1014.6
20260905105631 76 360 0.0 0.0 0.00 0.00 0.00 89 1014.6
20260905105516 76 360 0.0 0.0 0.00 0.00 0.00 89 1014.7
20260905105416 76 360 0.0 0.0 0.00 0.00 0.00 89 1014.6
20260905105337 76 360 0.0 0.0 0.00 0.00 0.00 89 1014.6
20260905105236 76 360 0.0 0.0 0.00 0.00 0.00 89 1014.5
20260905105116 76 360 0.0 0.0 0.00 0.00 0.00 89 1014.6
20260905105017 76 360 0.0 0.0 0.00 0.00 0.00 89 1014.6
20260905104918 77 360 0.0 0.0 0.00 0.00 0.00 89 1014.5
20260905104823 76 360 0.0 0.0 0.00 0.00 0.00 89 1014.5
20260905104724 76 360 0.0 0.0 0.00 0.00 0.00 89 1014.5
20260905104624 77 360 0.0 0.0 0.00 0.00 0.00 89 1014.5
20260905104525 77 360 0.0 0.0 0.00 0.00 0.00 89 1014.5
20260905104445 77 360 0.0 0.0 0.00 0.00 0.00 89 1014.6
20260905104325 77 360 0.0 0.0 0.00 0.00 0.00 89 1014.5
20260905104245 77 360 0.0 0.0 0.00 0.00 0.00 89 1014.5
20260905104125 77 360 0.0 0.0 0.00 0.00 0.00 89 1014.6
20260905104029 77 360 0.0 0.0 0.00 0.00 0.00 89 1014.5
20260905103930 77 360 0.0 0.0 0.00 0.00 0.00 89 1014.5
20260905103830 77 360 0.0 0.0 0.00 0.00 0.00 89 1014.5
20260905103751 77 360 0.0 0.0 0.00 0.00 0.00 89 1014.5
20260905103629 77 360 0.0 0.0 0.00 0.00 0.00 89 1014.5
20260905103528 77 360 0.0 0.0 0.00 0.00 0.00 89 1014.5
20260905103429 77 360 0.0 0.0 0.00 0.00 0.00 89 1014.5
20260905103334 77 360 0.0 0.0 0.00 0.00 0.00 89 1014.6
20260905103235 77 360 0.0 0.0 0.00 0.00 0.00 89 1014.5
20260905103134 77 360 0.0 0.0 0.00 0.00 0.00 89 1014.6
20260905103034 77 360 0.0 0.0 0.00 0.00 0.00 89 1014.5
20260905102935 77 360 0.0 0.0 0.00 0.00 0.00 89 1014.6
20260905102836 77 360 0.0 0.0 0.00 0.00 0.00 89 1014.5
20260905102716 77 360 0.0 0.0 0.00 0.00 0.00 89 1014.5
20260905102640 77 360 0.0 0.0 0.00 0.00 0.00 89 1014.4
20260905102519 77 360 0.0 0.0 0.00 0.00 0.00 89 1014.5
20260905102419 77 360 0.0 1.7 0.00 0.00 0.00 89 1014.4
20260905102320 77 360 0.0 1.7 0.00 0.00 0.00 89 1014.5
20260905102220 77 360 0.0 1.7 0.00 0.00 0.00 89 1014.5
20260905102120 77 360 0.0 1.7 0.00 0.00 0.00 89 1014.5
20260905102042 77 360 0.0 1.7 0.00 0.00 0.00 89 1014.5
20260905101921 77 360 0.0 2.6 0.00 0.00 0.00 89 1014.5
20260905101842 77 360 0.0 2.6 0.00 0.00 0.00 89 1014.5
20260905101726 77 360 0.0 2.6 0.00 0.00 0.00 89 1014.5
20260905101646 77 360 0.9 2.6 0.00 0.00 0.00 89 1014.4
20260905101525 77 360 0.9 2.6 0.00 0.00 0.00 89 1014.4
20260905101426 77 360 0.9 2.6 0.00 0.00 0.00 89 1014.4
20260905101347 77 360 0.9 2.6 0.00 0.00 0.00 89 1014.3
20260905101228 77 360 0.9 2.6 0.00 0.00 0.00 89 1014.4
20260905101126 77 360 0.9 2.6 0.00 0.00 0.00 89 1014.4
20260905101027 77 360 0.9 2.6 0.00 0.00 0.00 89 1014.3
20260905100952 77 360 0.0 1.7 0.00 0.00 0.00 89 1014.4
20260905100831 77 360 0.0 0.9 0.00 0.00 0.00 89 1014.4
20260905100732 77 185 0.0 0.9 0.00 0.00 0.00 89 1014.4
20260905100632 77 360 0.0 0.9 0.00 0.00 0.00 89 1014.5
20260905100533 77 360 0.0 1.7 0.00 0.00 0.00 89 1014.4
20260905100454 77 360 0.0 1.7 0.00 0.00 0.00 89 1014.5
20260905100334 77 360 0.0 1.7 0.00 0.00 0.00 88 1014.4
20260905100219 77 360 0.0 1.7 0.00 0.00 0.00 88 1014.5
20260905100118 77 360 0.0 1.7 0.00 0.00 0.00 88 1014.4
20260905100019 77 360 0.0 1.7 0.00 0.00 0.00 88 1014.4
20260905095939 77 360 0.9 1.7 0.00 0.00 0.00 88 1014.5
20260905095820 77 360 0.9 1.7 0.00 0.00 0.00 88 1014.5
20260905095718 77 360 0.9 1.7 0.00 0.00 0.00 88 1014.4
20260905095619 77 360 0.9 1.7 0.00 0.00 0.00 88 1014.4
20260905095524 77 360 0.9 1.7 0.00 0.00 0.00 88 1014.4
20260905095425 77 360 0.9 1.7 0.00 0.00 0.00 88 1014.4
20260905095346 77 360 0.9 1.7 0.00 0.00 0.00 88 1014.4
20260905095224 77 360 0.9 1.7 0.00 0.00 0.00 88 1014.4
20260905095126 77 360 0.0 0.9 0.00 0.00 0.00 88 1014.3
20260905095026 77 360 0.0 0.9 0.00 0.00 0.00 88 1014.4
20260905094926 77 360 0.0 0.0 0.00 0.00 0.00 88 1014.3
20260905094827 77 360 0.0 0.0 0.00 0.00 0.00 88 1014.3
20260905094730 77 360 0.0 0.0 0.00 0.00 0.00 88 1014.3
20260905094650 77 360 0.0 0.0 0.00 0.00 0.00 88 1014.3
20260905094530 77 360 0.0 0.0 0.00 0.00 0.00 88 1014.3
20260905094431 77 360 0.0 0.0 0.00 0.00 0.00 89 1014.3
20260905094331 77 360 0.0 0.0 0.00 0.00 0.00 88 1014.3
20260905094232 77 360 0.0 0.0 0.00 0.00 0.00 88 1014.2
20260905094116 77 360 0.0 0.0 0.00 0.00 0.00 88 1014.2
20260905094037 77 185 0.0 0.0 0.00 0.00 0.00 88 1014.3
20260905093917 77 185 0.0 0.0 0.00 0.00 0.00 88 1014.2
20260905093817 77 185 0.0 0.9 0.00 0.00 0.00 88 1014.3
20260905093719 77 185 0.0 0.9 0.00 0.00 0.00 88 1014.2
20260905093621 77 185 0.0 0.9 0.00 0.00 0.00 88 1014.1
20260905093521 77 185 0.0 1.7 0.00 0.00 0.00 88 1014.2
20260905093426 78 360 0.0 1.7 0.00 0.00 0.00 88 1014.2
20260905093325 78 360 0.0 1.7 0.00 0.00 0.00 88 1014.1
20260905093225 78 360 0.0 1.7 0.00 0.00 0.00 88 1014.2
20260905093127 78 185 0.0 1.7 0.00 0.00 0.00 88 1014.1
20260905093028 78 185 0.0 1.7 0.00 0.00 0.00 88 1014.1
20260905092949 78 360 0.0 1.7 0.00 0.00 0.00 88 1014.1
20260905092829 78 360 0.0 1.7 0.00 0.00 0.00 88 1014.1
20260905092729 78 360 0.9 1.7 0.00 0.00 0.00 88 1014.1
20260905092633 78 360 0.9 1.7 0.00 0.00 0.00 88 1014.1
20260905092534 78 360 0.9 1.7 0.00 0.00 0.00 88 1014.2
20260905092454 78 360 0.9 1.7 0.00 0.00 0.00 88 1014.2
20260905092333 78 360 0.0 3.5 0.00 0.00 0.00 88 1014.2
20260905092253 78 360 0.0 3.5 0.00 0.00 0.00 88 1014.1
20260905092153 78 360 0.0 3.5 0.00 0.00 0.00 88 1014.2
20260905092032 78 360 0.0 3.5 0.00 0.00 0.00 88 1014.2
20260905091933 78 360 0.9 3.5 0.00 0.00 0.00 88 1014.2
20260905091817 78 360 0.9 3.5 0.00 0.00 0.00 88 1014.2
20260905091717 78 360 0.9 3.5 0.00 0.00 0.00 88 1014.2
20260905091618 78 360 0.9 3.5 0.00 0.00 0.00 89 1014.3
20260905091519 78 360 1.7 3.5 0.00 0.00 0.00 89 1014.3
20260905091419 78 360 1.7 4.3 0.00 0.00 0.00 88 1014.4
20260905091319 78 360 0.9 4.3 0.00 0.00 0.00 88 1014.4
20260905091224 78 360 0.9 4.3 0.00 0.00 0.00 88 1014.4
20260905091126 78 360 0.9 4.3 0.00 0.00 0.00 88 1014.3
20260905091026 78 185 0.9 4.3 0.00 0.00 0.00 88 1014.3
20260905090927 78 360 0.9 4.3 0.00 0.00 0.00 88 1014.3
20260905090825 78 360 1.7 4.3 0.00 0.00 0.00 88 1014.3
20260905090725 78 360 1.7 4.3 0.00 0.00 0.00 88 1014.4
20260905090625 78 360 2.6 4.3 0.00 0.00 0.00 88 1014.4
20260905090530 78 360 2.6 4.3 0.00 0.00 0.00 88 1014.3
20260905090451 78 360 1.7 3.5 0.00 0.00 0.00 88 1014.3
20260905090330 78 360 1.7 3.5 0.00 0.00 0.00 88 1014.3
20260905090230 78 360 1.7 4.3 0.00 0.00 0.00 88 1014.3
20260905090131 78 360 1.7 4.3 0.00 0.00 0.00 88 1014.3
20260905090051 78 360 1.7 4.3 0.00 0.00 0.00 88 1014.3
20260905085930 78 360 1.7 4.3 0.00 0.00 0.00 88 1014.3
20260905085832 78 360 1.7 5.2 0.00 0.00 0.00 88 1014.3
20260905085734 78 360 0.9 5.2 0.00 0.00 0.00 88 1014.5
20260905085634 78 185 0.9 7.0 0.00 0.00 0.00 88 1014.3
20260905085534 78 360 1.7 7.0 0.00 0.00 0.00 88 1014.4
20260905085455 78 360 1.7 7.0 0.00 0.00 0.00 88 1014.4
20260905085334 78 360 1.7 7.0 0.00 0.00 0.00 88 1014.4
20260905085235 78 360 1.7 7.0 0.00 0.00 0.00 88 1014.4
20260905085156 78 360 1.7 7.0 0.00 0.00 0.00 88 1014.4
20260905085019 78 360 2.6 7.0 0.00 0.00 0.00 88 1014.4
20260905084919 78 360 3.5 7.0 0.00 0.00 0.00 88 1014.4
20260905084819 78 360 3.5 7.0 0.00 0.00 0.00 88 1014.4
20260905084718 78 360 3.5 7.0 0.00 0.00 0.00 88 1014.4
20260905084619 78 360 2.6 7.0 0.00 0.00 0.00 87 1014.5
20260905084520 78 360 3.5 8.7 0.00 0.00 0.00 87 1014.4
20260905084420 78 360 2.6 8.7 0.00 0.00 0.00 87 1014.5
20260905084320 78 360 3.5 8.7 0.00 0.00 0.00 87 1014.4
20260905084225 78 360 3.5 8.7 0.00 0.00 0.00 87 1014.4
20260905084127 78 360 3.5 8.7 0.00 0.00 0.00 87 1014.4
20260905084028 78 360 3.5 8.7 0.00 0.00 0.00 87 1014.4
20260905083928 78 360 4.3 8.7 0.00 0.00 0.00 87 1014.4
20260905083828 78 360 4.3 8.7 0.00 0.00 0.00 87 1014.4
20260905083729 78 360 4.3 8.7 0.00 0.00 0.00 87 1014.4
20260905083633 78 360 3.5 8.7 0.00 0.00 0.00 87 1014.5
20260905083554 78 360 3.5 8.7 0.00 0.00 0.00 87 1014.5
20260905083434 78 360 3.5 8.7 0.00 0.00 0.00 87 1014.4
20260905083335 78 360 4.3 8.7 0.00 0.00 0.00 87 1014.5
20260905083216 78 360 3.5 8.7 0.00 0.00 0.00 87 1014.4
20260905083116 78 360 4.3 8.7 0.00 0.00 0.00 87 1014.5
20260905083038 78 360 3.5 7.8 0.00 0.00 0.00 87 1014.5
20260905082921 78 360 3.5 7.8 0.00 0.00 0.00 87 1014.5
20260905082822 78 360 3.5 7.8 0.00 0.00 0.00 87 1014.4
20260905082719 78 360 2.6 7.8 0.00 0.00 0.00 87 1014.5
20260905082620 78 360 2.6 7.8 0.00 0.00 0.00 87 1014.4
20260905082541 78 360 2.6 8.7 0.00 0.00 0.00 87 1014.5
20260905082420 78 360 3.5 8.7 0.00 0.00 0.00 87 1014.5
20260905082320 78 360 4.3 8.7 0.00 0.00 0.00 87 1014.4
20260905082219 78 360 3.5 8.7 0.00 0.00 0.00 87 1014.4
20260905082125 78 360 2.6 8.7 0.00 0.00 0.00 87 1014.5
20260905082025 78 360 1.7 8.7 0.00 0.00 0.00 87 1014.5
20260905081926 78 360 2.6 8.7 0.00 0.00 0.00 86 1014.5
20260905081826 78 360 3.5 8.7 0.00 0.00 0.00 86 1014.6
20260905081746 78 360 3.5 8.7 0.00 0.00 0.00 86 1014.6
20260905081625 78 360 2.6 7.8 0.00 0.00 0.00 86 1014.6
20260905081526 79 360 1.7 7.0 0.00 0.00 0.00 86 1014.6
20260905081430 79 360 1.7 7.0 0.00 0.00 0.00 86 1014.6
20260905081351 78 360 1.7 7.0 0.00 0.00 0.00 86 1014.6
20260905081231 79 360 1.7 7.0 0.00 0.00 0.00 86 1014.7
20260905081132 79 360 2.6 7.0 0.00 0.00 0.00 86 1014.6
20260905081031 79 360 3.5 7.0 0.00 0.00 0.00 86 1014.6
20260905080932 79 360 2.6 7.0 0.00 0.00 0.00 86 1014.7
20260905080832 79 360 3.5 7.8 0.00 0.00 0.00 86 1014.7
20260905080717 79 360 3.5 7.8 0.00 0.00 0.00 86 1014.7
20260905080617 79 360 3.5 7.8 0.00 0.00 0.00 86 1014.8
20260905080517 79 360 2.6 8.7 0.00 0.00 0.00 86 1014.7
20260905080418 79 360 2.6 8.7 0.00 0.00 0.00 86 1014.8
20260905080318 79 360 2.6 8.7 0.00 0.00 0.00 86 1014.8
20260905080219 79 360 3.5 8.7 0.00 0.00 0.00 86 1014.8
20260905080123 79 360 3.5 8.7 0.00 0.00 0.00 86 1014.8
20260905080045 79 360 2.6 8.7 0.00 0.00 0.00 86 1014.8
20260905075925 79 360 3.5 8.7 0.00 0.00 0.00 86 1014.7
20260905075827 79 360 3.5 8.7 0.00 0.00 0.00 86 1014.8
20260905075727 79 360 3.5 8.7 0.00 0.00 0.00 86 1014.8
20260905075626 79 360 1.7 7.8 0.00 0.00 0.00 85 1014.8
20260905075527 79 360 1.7 7.8 0.00 0.00 0.00 85 1014.7
20260905075432 79 360 2.6 7.8 0.00 0.00 0.00 85 1014.8
20260905075332 79 360 3.5 7.8 0.00 0.00 0.00 85 1014.8
20260905075233 79 360 2.6 7.8 0.00 0.00 0.00 85 1014.8
20260905075132 79 360 2.6 7.8 0.00 0.00 0.00 85 1014.8
20260905075052 79 360 2.6 7.8 0.00 0.00 0.00 85 1014.8
20260905074932 79 360 4.3 7.8 0.00 0.00 0.00 85 1014.9
20260905074833 79 360 4.3 7.8 0.00 0.00 0.00 85 1014.8
20260905074754 79 360 4.3 7.8 0.00 0.00 0.00 85 1014.9
20260905074617 79 360 4.3 7.8 0.00 0.00 0.00 85 1014.8
20260905074517 79 360 4.3 7.8 0.00 0.00 0.00 85 1014.9
20260905074417 79 360 3.5 7.8 0.00 0.00 0.00 85 1015.0
20260905074338 79 360 3.5 9.6 0.00 0.00 0.00 85 1014.9
20260905074216 79 360 3.5 9.6 0.00 0.00 0.00 85 1014.9
20260905074118 79 360 3.5 9.6 0.00 0.00 0.00 85 1015.0
20260905074016 79 360 3.5 9.6 0.00 0.00 0.00 85 1015.0
20260905073916 79 177 3.5 9.6 0.00 0.00 0.00 85 1014.9
20260905073821 79 360 4.3 9.6 0.00 0.00 0.00 85 1014.8
20260905073723 79 360 4.3 9.6 0.00 0.00 0.00 85 1014.9
20260905073624 79 170 5.2 9.6 0.00 0.00 0.00 85 1014.9
20260905073523 79 360 4.3 9.6 0.00 0.00 0.00 85 1014.9
20260905073424 79 360 3.5 7.8 0.00 0.00 0.00 84 1014.9
20260905073325 79 360 2.6 7.8 0.00 0.00 0.00 84 1014.9
20260905073226 79 360 2.6 7.8 0.00 0.00 0.00 84 1014.8
20260905073151 79 360 2.6 7.8 0.00 0.00 0.00 84 1014.8
20260905073050 79 360 4.3 7.8 0.00 0.00 0.00 84 1014.8
20260905072930 79 360 4.3 7.8 0.00 0.00 0.00 84 1014.9
20260905072832 79 360 3.5 7.8 0.00 0.00 0.00 84 1014.8
20260905072732 79 360 3.5 7.0 0.00 0.00 0.00 84 1015.0
20260905072632 79 360 4.3 7.0 0.00 0.00 0.00 84 1014.9
20260905072533 79 360 4.3 7.0 0.00 0.00 0.00 84 1014.9
20260905072418 79 360 5.2 7.8 0.00 0.00 0.00 84 1015.0
20260905072319 79 360 4.3 7.8 0.00 0.00 0.00 84 1015.0
20260905072220 79 360 4.3 7.8 0.00 0.00 0.00 84 1015.0
20260905072141 79 360 4.3 7.8 0.00 0.00 0.00 84 1015.1
20260905072040 79 360 5.2 7.8 0.00 0.00 0.00 84 1015.0
20260905071941 79 360 5.2 7.8 0.00 0.00 0.00 84 1015.0
20260905071821 79 360 4.3 7.8 0.00 0.00 0.00 84 1015.0
20260905071721 79 360 4.3 7.0 0.00 0.00 0.00 84 1015.0
20260905071627 79 360 3.5 7.0 0.00 0.00 0.00 84 1015.1
20260905071528 79 360 3.5 5.2 0.00 0.00 0.00 84 1015.1
20260905071430 79 360 2.6 7.0 0.00 0.00 0.00 84 1015.1
20260905071331 79 360 3.5 7.0 0.00 0.00 0.00 84 1015.1
20260905071231 79 360 2.6 7.0 0.00 0.00 0.00 84 1015.1
20260905071132 79 360 3.5 7.0 0.00 0.00 0.00 84 1015.1
20260905071018 79 360 3.5 7.0 0.00 0.00 0.00 84 1015.1
20260905070919 79 360 2.6 7.0 0.00 0.00 0.00 84 1015.1
20260905070819 79 360 2.6 7.8 0.00 0.00 0.00 84 1015.1
20260905070720 79 360 3.5 7.8 0.00 0.00 0.00 84 1015.0
20260905070621 79 360 3.5 7.8 0.00 0.00 0.00 84 1015.1
20260905070521 79 360 3.5 7.8 0.00 0.00 0.00 84 1015.0
20260905070426 79 360 2.6 7.8 0.00 0.00 0.00 83 1015.0
20260905070327 79 360 2.6 8.7 0.00 0.00 0.00 83 1015.1
20260905070247 79 360 3.5 8.7 0.00 0.00 0.00 83 1015.0
20260905070126 79 360 3.5 8.7 0.00 0.00 0.00 83 1015.1
20260905070026 79 360 3.5 8.7 0.00 0.00 0.00 83 1015.0
20260905065927 79 360 3.5 8.7 0.00 0.00 0.00 83 1015.0
20260905065829 79 360 2.6 8.7 0.00 0.00 0.00 83 1015.1
20260905065732 79 360 1.7 8.7 0.00 0.00 0.00 83 1015.0
20260905065632 80 360 3.5 8.7 0.00 0.00 0.00 83 1015.0
20260905065533 80 360 3.5 8.7 0.00 0.00 0.00 83 1015.1
20260905065429 80 360 3.5 8.7 0.00 0.00 0.00 83 1015.0
20260905065330 80 360 3.5 7.0 0.00 0.00 0.00 83 1015.0
20260905065231 80 360 3.5 7.8 0.00 0.00 0.00 83 1015.2
20260905065117 80 360 3.5 7.8 0.00 0.00 0.00 83 1015.2
20260905065038 80 360 3.5 7.8 0.00 0.00 0.00 83 1015.1
20260905064918 80 360 3.5 7.8 0.00 0.00 0.00 83 1015.2
20260905064818 80 360 3.5 8.7 0.00 0.00 0.00 83 1015.1
20260905064719 80 360 4.3 8.7 0.00 0.00 0.00 83 1015.2
20260905064639 80 360 4.3 8.7 0.00 0.00 0.00 83 1015.1
20260905064600 80 360 4.3 10.4 0.00 0.00 0.00 83 1015.1
20260905064419 80 360 4.3 10.4 0.00 0.00 0.00 83 1015.1
20260905064323 80 360 4.3 10.4 0.00 0.00 0.00 83 1015.1
20260905064223 80 360 4.3 10.4 0.00 0.00 0.00 83 1015.1
20260905064123 80 360 4.3 10.4 0.00 0.00 0.00 82 1015.1
20260905064024 80 360 5.2 10.4 0.00 0.00 0.00 82 1015.1
20260905063945 80 360 5.2 10.4 0.00 0.00 0.00 82 1015.1
20260905063824 80 360 5.2 10.4 0.00 0.00 0.00 82 1015.1
20260905063725 80 360 6.1 10.4 0.00 0.00 0.00 82 1015.1
20260905063630 80 360 6.1 10.4 0.00 0.00 0.00 82 1015.1
20260905063531 80 360 5.2 9.6 0.00 0.00 0.00 82 1015.1
20260905063450 80 360 5.2 9.6 0.00 0.00 0.00 82 1015.1
20260905063329 80 360 4.3 9.6 0.00 0.00 0.00 82 1015.0
20260905063230 80 360 5.2 9.6 0.00 0.00 0.00 82 1015.0
20260905063150 80 360 6.1 9.6 0.00 0.00 0.00 82 1015.1
20260905063029 80 360 6.1 9.6 0.00 0.00 0.00 82 1015.0
20260905062929 80 360 5.2 9.6 0.00 0.00 0.00 82 1015.1
20260905062835 80 360 5.2 9.6 0.00 0.00 0.00 82 1015.1
20260905062755 80 360 4.3 9.6 0.00 0.00 0.00 82 1015.1
20260905062635 80 360 4.3 10.4 0.00 0.00 0.00 82 1015.1
20260905062516 80 360 4.3 10.4 0.00 0.00 0.00 82 1015.1
20260905062438 80 360 5.2 10.4 0.00 0.00 0.00 82 1015.1
20260905062317 80 360 5.2 10.4 0.00 0.00 0.00 82 1015.1
20260905062217 80 360 6.1 10.4 0.00 0.00 0.00 82 1015.0
20260905062120 80 360 6.1 10.4 0.00 0.00 0.00 82 1015.1
20260905062021 80 360 5.2 10.4 0.00 0.00 0.00 82 1015.1
20260905061921 80 360 5.2 10.4 0.00 0.00 0.00 82 1015.1
20260905061821 80 360 4.3 7.8 0.00 0.00 0.00 82 1015.1
20260905061721 80 360 4.3 8.7 0.00 0.00 0.00 82 1015.1
20260905061622 80 360 5.2 8.7 0.00 0.00 0.00 82 1015.1
20260905061543 80 360 5.2 8.7 0.00 0.00 0.00 82 1015.2
20260905061442 80 360 4.3 8.7 0.00 0.00 0.00 82 1015.1
20260905061326 80 360 4.3 8.7 0.00 0.00 0.00 81 1015.2
20260905061226 80 360 4.3 8.7 0.00 0.00 0.00 81 1015.2
20260905061126 80 360 5.2 9.6 0.00 0.00 0.00 81 1015.1
20260905061027 80 360 4.3 9.6 0.00 0.00 0.00 81 1015.2
20260905060949 80 360 5.2 9.6 0.00 0.00 0.00 81 1015.1
20260905060828 80 360 4.3 9.6 0.00 0.00 0.00 81 1015.2
20260905060730 80 360 4.3 9.6 0.00 0.00 0.00 81 1015.1
20260905060635 80 360 4.3 10.4 0.00 0.00 0.00 81 1015.1
20260905060534 80 360 5.2 10.4 0.00 0.00 0.00 81 1015.1
20260905060455 80 360 5.2 10.4 0.00 0.00 0.00 81 1015.1
20260905060334 80 360 6.1 10.4 0.00 0.00 0.00 81 1015.1
20260905060235 80 360 5.2 10.4 0.00 0.00 0.00 81 1015.0
20260905060136 80 360 5.2 10.4 0.00 0.00 0.00 81 1015.1
20260905060055 80 360 5.2 10.4 0.00 0.00 0.00 81 1015.1
20260905055920 80 360 6.1 10.4 0.00 0.00 0.00 81 1015.1
20260905055841 80 360 6.1 10.4 0.00 0.00 0.00 81 1015.1
20260905055720 80 360 5.2 9.6 0.00 0.00 0.00 81 1015.1
20260905055620 80 360 5.2 9.6 0.00 0.00 0.00 81 1015.1
20260905055520 80 360 6.1 9.6 0.00 0.00 0.00 81 1015.1
20260905055421 80 360 6.1 9.6 0.00 0.00 0.00 81 1015.1
20260905055322 80 360 5.2 9.6 0.00 0.00 0.00 81 1015.1
20260905055242 80 360 5.2 9.6 0.00 0.00 0.00 81 1015.1
20260905055126 80 360 5.2 9.6 0.00 0.00 0.00 81 1015.1
20260905055028 80 360 6.1 9.6 0.00 0.00 0.00 81 1015.2
20260905054930 80 360 6.1 9.6 0.00 0.00 0.00 81 1015.2
20260905054830 80 360 6.1 9.6 0.00 0.00 0.00 81 1015.1
20260905054731 80 360 7.0 9.6 0.00 0.00 0.00 81 1015.1
20260905054651 80 360 6.1 9.6 0.00 0.00 0.00 81 1015.1
20260905054530 80 360 5.2 8.7 0.00 0.00 0.00 81 1015.2
20260905054451 80 360 5.2 8.7 0.00 0.00 0.00 80 1015.1
20260905054355 80 360 6.1 8.7 0.00 0.00 0.00 80 1015.1
20260905054233 80 360 6.1 8.7 0.00 0.00 0.00 80 1015.1
20260905054134 80 360 5.2 10.4 0.00 0.00 0.00 80 1015.1
20260905054015 80 360 4.3 10.4 0.00 0.00 0.00 80 1015.2
20260905053916 80 360 5.2 10.4 0.00 0.00 0.00 80 1015.1
20260905053816 80 360 5.2 10.4 0.00 0.00 0.00 80 1015.1
20260905053721 81 360 5.2 10.4 0.00 0.00 0.00 80 1015.1
20260905053622 81 360 6.1 10.4 0.00 0.00 0.00 80 1015.1
20260905053523 81 360 6.1 10.4 0.00 0.00 0.00 80 1015.1
20260905053423 81 360 7.0 10.4 0.00 0.00 0.00 80 1015.1
20260905053343 81 360 7.0 10.4 0.00 0.00 0.00 80 1015.0
20260905053223 81 360 7.0 10.4 0.00 0.00 0.00 80 1015.0
20260905053124 81 360 7.0 10.4 0.00 0.00 0.00 80 1015.1
20260905053029 81 360 7.0 9.6 0.00 0.00 0.00 80 1015.1
20260905052930 81 360 7.0 9.6 0.00 0.00 0.00 80 1015.1
20260905052832 81 360 6.1 9.6 0.00 0.00 0.00 80 1015.1
20260905052731 81 360 5.2 9.6 0.00 0.00 0.00 79 1015.1
20260905052632 81 360 5.2 9.6 0.00 0.00 0.00 79 1015.1
20260905052533 81 360 6.1 11.3 0.00 0.00 0.00 79 1015.1
20260905052419 81 360 6.1 11.3 0.00 0.00 0.00 79 1015.1
20260905052318 81 360 5.2 11.3 0.00 0.00 0.00 79 1015.2
20260905052219 81 360 6.1 11.3 0.00 0.00 0.00 79 1015.2
20260905052120 81 360 6.1 11.3 0.00 0.00 0.00 79 1015.2
20260905052020 81 360 6.1 11.3 0.00 0.00 0.00 79 1015.2
20260905051920 81 360 6.1 11.3 0.00 0.00 0.00 79 1015.2
20260905051841 81 360 6.1 11.3 0.00 0.00 0.00 79 1015.2
20260905051724 81 360 6.1 11.3 0.00 0.00 0.00 79 1015.2
20260905051645 81 360 6.1 10.4 0.00 0.00 0.00 79 1015.3
20260905051524 81 360 5.2 8.7 0.00 0.00 0.00 79 1015.3
20260905051425 81 360 5.2 8.7 0.00 0.00 0.00 79 1015.2
20260905051326 81 360 4.3 8.7 0.00 0.00 0.00 79 1015.3
20260905051226 81 360 4.3 8.7 0.00 0.00 0.00 79 1015.3
20260905051127 81 360 4.3 10.4 0.00 0.00 0.00 79 1015.3
20260905051026 81 360 5.2 10.4 0.00 0.00 0.00 79 1015.3
20260905050930 81 360 5.2 10.4 0.00 0.00 0.00 79 1015.3
20260905050830 81 360 5.2 10.4 0.00 0.00 0.00 79 1015.3
20260905050730 81 360 4.3 10.4 0.00 0.00 0.00 78 1015.2
20260905050651 81 360 5.2 10.4 0.00 0.00 0.00 78 1015.2
20260905050530 81 360 5.2 10.4 0.00 0.00 0.00 78 1015.3
20260905050431 81 360 6.1 10.4 0.00 0.00 0.00 78 1015.2
20260905050330 81 360 6.1 10.4 0.00 0.00 0.00 78 1015.2
20260905050231 81 360 6.1 11.3 0.00 0.00 0.00 78 1015.2
20260905050115 81 360 5.2 11.3 0.00 0.00 0.00 78 1015.2
20260905050036 81 360 5.2 11.3 0.00 0.00 0.00 78 1015.2
20260905045930 81 360 4.3 11.3 0.00 0.00 0.00 78 1015.3
20260905045832 81 360 5.2 11.3 0.00 0.00 0.00 78 1015.2
20260905045751 81 360 6.1 11.3 0.00 0.00 0.00 78 1015.3
20260905045630 81 360 7.0 11.3 0.00 0.00 0.00 78 1015.3
20260905045531 81 360 7.0 11.3 0.00 0.00 0.00 78 1015.3
20260905045435 81 360 7.0 11.3 0.00 0.00 0.00 78 1015.2
20260905045316 81 360 5.2 11.3 0.00 0.00 0.00 78 1015.2
20260905045217 81 360 4.3 11.3 0.00 0.00 0.00 78 1015.2
20260905045117 81 360 4.3 11.3 0.00 0.00 0.00 77 1015.1
20260905045018 81 360 3.5 9.6 0.00 0.00 0.00 77 1015.1
20260905044939 81 360 4.3 11.3 0.00 0.00 0.00 77 1015.1
20260905044823 82 360 4.3 11.3 0.00 0.00 0.00 77 1015.2
20260905044723 82 360 5.2 11.3 0.00 0.00 0.00 77 1015.1
20260905044623 82 360 6.1 11.3 0.00 0.00 0.00 77 1015.1
20260905044545 82 360 7.0 11.3 0.00 0.00 0.00 77 1015.1
20260905044424 82 360 7.0 11.3 0.00 0.00 0.00 77 1015.1
20260905044325 82 360 7.0 11.3 0.00 0.00 0.00 77 1015.1
20260905044226 82 360 7.0 11.3 0.00 0.00 0.00 77 1015.1
20260905044146 82 360 7.0 13.0 0.00 0.00 0.00 77 1015.1
20260905044030 82 360 7.0 13.0 0.00 0.00 0.00 76 1015.1
20260905043930 82 360 6.1 15.6 0.00 0.00 0.00 76 1015.0
20260905043832 82 360 7.0 15.6 0.00 0.00 0.00 76 1015.1
20260905043732 82 360 7.0 15.6 0.00 0.00 0.00 76 1015.1
20260905043632 82 360 7.8 15.6 0.00 0.00 0.00 76 1015.1
20260905043532 82 360 6.1 15.6 0.00 0.00 0.00 76 1015.1
20260905043454 82 360 6.1 15.6 0.00 0.00 0.00 76 1015.2
20260905043317 82 360 8.7 15.6 0.00 0.00 0.00 76 1015.2
20260905043218 82 360 8.7 15.6 0.00 0.00 0.00 76 1015.1
20260905043119 82 360 8.7 15.6 0.00 0.00 0.00 76 1015.2
20260905043018 82 360 7.0 13.9 0.00 0.00 0.00 76 1015.2
20260905042920 82 360 6.1 9.6 0.00 0.00 0.00 76 1015.2
20260905042823 82 360 6.1 9.6 0.00 0.00 0.00 76 1015.2
20260905042722 82 360 6.1 11.3 0.00 0.00 0.00 76 1015.2
20260905042627 82 360 6.1 11.3 0.00 0.00 0.00 76 1015.2
20260905042528 82 360 6.1 11.3 0.00 0.00 0.00 76 1015.1
20260905042429 82 360 7.0 11.3 0.00 0.00 0.00 76 1015.1
20260905042330 82 360 7.0 11.3 0.00 0.00 0.00 76 1015.1
20260905042230 82 360 6.1 11.3 0.00 0.00 0.00 76 1015.1
20260905042150 82 360 7.0 12.2 0.00 0.00 0.00 76 1015.1
20260905042029 82 360 7.0 12.2 0.00 0.00 0.00 75 1015.0
20260905041934 82 360 7.0 12.2 0.00 0.00 0.00 75 1015.0
20260905041833 82 360 5.2 14.8 0.00 0.00 0.00 75 1015.0
20260905041734 82 360 4.3 14.8 0.00 0.00 0.00 76 1015.0
20260905041634 82 360 5.2 14.8 0.00 0.00 0.00 76 1015.1
20260905041535 82 360 7.0 14.8 0.00 0.00 0.00 75 1015.0
20260905041435 82 360 7.8 14.8 0.00 0.00 0.00 75 1015.0
20260905041320 82 360 8.7 14.8 0.00 0.00 0.00 75 1015.0
20260905041221 82 360 7.8 14.8 0.00 0.00 0.00 75 1015.1
20260905041123 82 360 7.0 14.8 0.00 0.00 0.00 75 1015.0
20260905041024 82 360 7.0 14.8 0.00 0.00 0.00 75 1015.1
20260905040924 82 360 6.1 12.2 0.00 0.00 0.00 75 1015.1
20260905040825 82 360 7.8 12.2 0.00 0.00 0.00 75 1015.1
20260905040725 82 360 7.8 14.8 0.00 0.00 0.00 75 1015.1
20260905040628 82 360 7.0 14.8 0.00 0.00 0.00 75 1015.1
20260905040529 82 360 7.0 14.8 0.00 0.00 0.00 75 1015.1
20260905040430 82 360 6.1 14.8 0.00 0.00 0.00 75 1015.1
20260905040330 82 360 6.1 14.8 0.00 0.00 0.00 75 1015.1
20260905040232 82 360 7.8 14.8 0.00 0.00 0.00 75 1015.1
20260905040131 82 360 7.8 14.8 0.00 0.00 0.00 75 1015.2
20260905040016 82 360 7.8 14.8 0.00 0.00 0.00 75 1015.1
20260905035917 82 360 7.0 14.8 0.00 0.00 0.00 75 1015.2
20260905035817 82 360 6.1 14.8 0.00 0.00 0.00 75 1015.1
20260905035738 82 360 6.1 14.8 0.00 0.00 0.00 74 1015.2
20260905035616 82 360 7.0 14.8 0.00 0.00 0.00 75 1015.1
20260905035518 83 360 7.8 14.8 0.00 0.00 0.00 74 1015.1
20260905035419 83 360 7.8 14.8 0.00 0.00 0.00 74 1015.1
20260905035340 83 360 7.8 14.8 0.00 0.00 0.00 74 1015.0
20260905035224 83 360 8.7 14.8 0.00 0.00 0.00 74 1015.0
20260905035124 83 360 7.8 14.8 0.00 0.00 0.00 74 1015.1
20260905035045 82 360 7.8 14.8 0.00 0.00 0.00 74 1015.0
20260905034924 83 360 7.0 10.4 0.00 0.00 0.00 74 1015.1
20260905034824 83 360 7.0 11.3 0.00 0.00 0.00 74 1015.1
20260905034725 83 360 7.0 11.3 0.00 0.00 0.00 74 1015.1
20260905034624 83 360 7.0 11.3 0.00 0.00 0.00 74 1015.1
20260905034529 83 360 6.1 11.3 0.00 0.00 0.00 74 1015.1
20260905034451 83 360 6.1 11.3 0.00 0.00 0.00 74 1015.1
20260905034331 83 360 7.0 11.3 0.00 0.00 0.00 74 1015.0
20260905034231 83 360 7.0 11.3 0.00 0.00 0.00 74 1015.0
20260905034131 83 360 7.8 11.3 0.00 0.00 0.00 74 1015.0
20260905034032 83 360 7.8 11.3 0.00 0.00 0.00 74 1015.0
20260905033933 83 360 7.0 11.3 0.00 0.00 0.00 74 1015.1
20260905033837 83 360 7.0 11.3 0.00 0.00 0.00 74 1015.1
20260905033717 83 360 7.0 11.3 0.00 0.00 0.00 73 1015.1
20260905033617 83 360 7.8 13.0 0.00 0.00 0.00 73 1015.1
20260905033538 83 360 7.8 13.0 0.00 0.00 0.00 73 1015.0
20260905033417 83 360 7.8 13.0 0.00 0.00 0.00 73 1015.0
20260905033318 83 360 7.8 13.0 0.00 0.00 0.00 73 1015.1
20260905033239 83 360 7.8 13.0 0.00 0.00 0.00 73 1015.0
20260905033119 83 360 7.0 13.0 0.00 0.00 0.00 73 1015.0
20260905033044 83 360 7.0 13.0 0.00 0.00 0.00 73 1015.0
20260905032924 83 360 7.0 13.0 0.00 0.00 0.00 73 1015.1
20260905032826 83 360 7.0 13.0 0.00 0.00 0.00 73 1015.0
20260905032726 83 360 7.0 13.0 0.00 0.00 0.00 73 1014.9
20260905032627 83 360 7.0 13.0 0.00 0.00 0.00 73 1014.9
20260905032549 83 360 7.8 13.0 0.00 0.00 0.00 73 1014.9
20260905032429 83 360 7.8 13.0 0.00 0.00 0.00 73 1015.0
20260905032333 83 360 7.8 13.0 0.00 0.00 0.00 73 1014.8
20260905032253 83 360 8.7 13.0 0.00 0.00 0.00 73 1015.0
20260905032133 83 161 8.7 13.0 0.00 0.00 0.00 73 1014.9
20260905032033 83 360 8.7 12.2 0.00 0.00 0.00 73 1014.9
20260905031933 83 360 7.8 12.2 0.00 0.00 0.00 73 1014.9
20260905031834 83 360 7.0 12.2 0.00 0.00 0.00 73 1014.8
20260905031735 83 360 6.1 12.2 0.00 0.00 0.00 72 1015.3
20260905031619 83 150 5.2 12.2 0.00 0.00 0.00 72 1015.0
20260905031519 83 360 6.1 12.2 0.00 0.00 0.00 72 1015.0
20260905031440 83 360 7.0 12.2 0.00 0.00 0.00 72 1015.0
20260905031320 83 360 7.8 12.2 0.00 0.00 0.00 72 1015.0
20260905031220 83 360 8.7 12.2 0.00 0.00 0.00 72 1014.9
20260905031121 83 360 7.8 12.2 0.00 0.00 0.00 72 1014.9
20260905031022 83 360 7.0 12.2 0.00 0.00 0.00 72 1014.9
20260905030925 83 360 7.0 12.2 0.00 0.00 0.00 72 1015.0
20260905030826 83 360 7.0 12.2 0.00 0.00 0.00 72 1015.0
20260905030727 83 360 7.0 12.2 0.00 0.00 0.00 72 1014.9
20260905030627 83 360 7.8 12.2 0.00 0.00 0.00 72 1014.9
20260905030528 83 360 8.7 12.2 0.00 0.00 0.00 72 1014.8
20260905030428 83 360 8.7 12.2 0.00 0.00 0.00 72 1014.9
20260905030332 83 360 7.0 12.2 0.00 0.00 0.00 72 1014.9
20260905030233 83 360 6.1 11.3 0.00 0.00 0.00 72 1014.8
20260905030133 83 360 5.2 11.3 0.00 0.00 0.00 71 1014.8
20260905030034 83 360 7.0 11.3 0.00 0.00 0.00 71 1014.9
20260905025934 83 360 7.0 11.3 0.00 0.00 0.00 71 1014.9
20260905025836 83 360 7.8 11.3 0.00 0.00 0.00 71 1014.9
20260905025720 83 360 7.8 11.3 0.00 0.00 0.00 71 1014.8
20260905025640 83 360 7.8 12.2 0.00 0.00 0.00 70 1014.8
20260905025520 83 360 7.8 12.2 0.00 0.00 0.00 70 1014.8
20260905025420 84 360 7.0 12.2 0.00 0.00 0.00 70 1014.7
20260905025320 83 360 7.8 12.2 0.00 0.00 0.00 70 1014.8
20260905025221 83 360 7.8 12.2 0.00 0.00 0.00 70 1014.7
20260905025121 84 360 7.8 12.2 0.00 0.00 0.00 70 1014.7
20260905025025 83 360 7.8 12.2 0.00 0.00 0.00 70 1014.7
20260905024926 83 360 7.8 12.2 0.00 0.00 0.00 70 1014.7
20260905024829 83 360 8.7 12.2 0.00 0.00 0.00 70 1014.7
20260905024728 83 360 7.8 10.4 0.00 0.00 0.00 70 1014.7
20260905024629 83 360 7.0 10.4 0.00 0.00 0.00 70 1014.7
20260905024528 83 360 6.1 10.4 0.00 0.00 0.00 70 1014.7
20260905024429 83 360 5.2 9.6 0.00 0.00 0.00 69 1014.7
20260905024334 83 360 6.1 9.6 0.00 0.00 0.00 69 1014.7
20260905024255 83 360 6.1 9.6 0.00 0.00 0.00 69 1014.6
20260905024135 83 360 5.2 7.8 0.00 0.00 0.00 69 1014.6
20260905024034 83 360 4.3 7.8 0.00 0.00 0.00 69 1014.5
20260905023934 83 360 3.5 5.2 0.00 0.00 0.00 69 1014.6
20260905023833 83 360 3.5 5.2 0.00 0.00 0.00 69 1014.6
20260905023735 83 360 2.6 5.2 0.00 0.00 0.00 69 1014.6
20260905023633 83 360 2.6 5.2 0.00 0.00 0.00 69 1014.7
20260905023518 83 360 2.6 5.2 0.00 0.00 0.00 69 1014.7
20260905023419 83 360 2.6 5.2 0.00 0.00 0.00 69 1014.6
20260905023319 83 360 2.6 5.2 0.00 0.00 0.00 69 1014.6
20260905023219 83 360 2.6 5.2 0.00 0.00 0.00 69 1014.7
20260905023118 83 360 2.6 5.2 0.00 0.00 0.00 69 1014.6
20260905023040 83 360 2.6 5.2 0.00 0.00 0.00 69 1014.6
20260905022939 83 360 2.6 5.2 0.00 0.00 0.00 69 1014.6
20260905022819 83 360 2.6 5.2 0.00 0.00 0.00 69 1014.6
20260905022723 83 360 2.6 4.3 0.00 0.00 0.00 69 1014.5
20260905022624 83 360 2.6 4.3 0.00 0.00 0.00 69 1014.5
20260905022524 84 360 2.6 5.2 0.00 0.00 0.00 69 1014.5
20260905022425 84 360 2.6 5.2 0.00 0.00 0.00 68 1014.5
20260905022345 84 360 2.6 5.2 0.00 0.00 0.00 68 1014.5
20260905022224 84 360 2.6 5.2 0.00 0.00 0.00 68 1014.4
20260905022126 84 360 2.6 5.2 0.00 0.00 0.00 68 1014.4
20260905022030 84 360 2.6 5.2 0.00 0.00 0.00 68 1014.4
20260905021930 84 360 2.6 5.2 0.00 0.00 0.00 68 1014.3
20260905021831 84 360 2.6 5.2 0.00 0.00 0.00 68 1014.3
20260905021732 84 360 2.6 5.2 0.00 0.00 0.00 68 1014.3
20260905021632 84 360 2.6 4.3 0.00 0.00 0.00 68 1014.3
20260905021552 84 360 2.6 5.2 0.00 0.00 0.00 68 1014.3
20260905021417 84 360 2.6 5.2 0.00 0.00 0.00 68 1014.3
20260905021318 84 360 2.6 5.2 0.00 0.00 0.00 68 1014.3
20260905021238 84 360 2.6 5.2 0.00 0.00 0.00 68 1014.3
20260905021118 84 360 3.5 5.2 0.00 0.00 0.00 68 1014.3
20260905021038 84 360 3.5 5.2 0.00 0.00 0.00 68 1014.2
20260905020918 84 161 3.5 7.8 0.00 0.00 0.00 68 1014.2
20260905020839 84 360 3.5 7.8 0.00 0.00 0.00 68 1014.2
20260905020719 84 360 3.5 7.8 0.00 0.00 0.00 68 1014.2
20260905020623 84 360 2.6 7.8 0.00 0.00 0.00 68 1014.1
20260905020523 84 360 2.6 7.8 0.00 0.00 0.00 67 1014.1
20260905020423 84 360 2.6 8.7 0.00 0.00 0.00 67 1014.0
20260905020323 84 360 3.5 8.7 0.00 0.00 0.00 67 1014.1
20260905020224 84 360 3.5 8.7 0.00 0.00 0.00 67 1014.0
20260905020125 84 360 3.5 8.7 0.00 0.00 0.00 67 1014.0
20260905020026 84 360 4.3 8.7 0.00 0.00 0.00 67 1014.0
20260905015927 84 360 4.3 8.7 0.00 0.00 0.00 67 1014.0
20260905015853 84 360 5.2 9.6 0.00 0.00 0.00 67 1014.0
20260905015732 84 360 5.2 9.6 0.00 0.00 0.00 67 1014.0
20260905015631 84 360 5.2 9.6 0.00 0.00 0.00 67 1014.0
20260905015532 84 360 4.3 10.4 0.00 0.00 0.00 67 1014.1
20260905015433 84 360 5.2 10.4 0.00 0.00 0.00 67 1014.2
20260905015333 84 360 5.2 10.4 0.00 0.00 0.00 66 1014.1
20260905015218 85 360 6.1 10.4 0.00 0.00 0.00 66 1014.1
20260905015119 85 360 6.1 10.4 0.00 0.00 0.00 66 1014.1
20260905015019 85 360 6.1 10.4 0.00 0.00 0.00 66 1014.1
20260905014921 85 360 6.1 10.4 0.00 0.00 0.00 66 1014.1
20260905014821 85 360 7.0 10.4 0.00 0.00 0.00 66 1014.2
20260905014721 85 360 7.0 10.4 0.00 0.00 0.00 66 1014.1
20260905014642 85 360 6.1 10.4 0.00 0.00 0.00 66 1014.1
20260905014542 85 360 5.2 10.4 0.00 0.00 0.00 66 1014.1
20260905014426 85 360 5.2 10.4 0.00 0.00 0.00 66 1014.0
20260905014327 85 360 6.1 10.4 0.00 0.00 0.00 66 1014.1
20260905014247 85 360 6.1 10.4 0.00 0.00 0.00 66 1014.0
20260905014147 85 360 5.2 9.6 0.00 0.00 0.00 66 1014.0
20260905014046 85 360 5.2 9.6 0.00 0.00 0.00 66 1014.0
20260905013925 85 360 5.2 9.6 0.00 0.00 0.00 66 1014.0
20260905013826 85 360 6.1 10.4 0.00 0.00 0.00 66 1014.0
20260905013727 85 360 7.0 10.4 0.00 0.00 0.00 66 1014.0
20260905013632 85 360 7.0 10.4 0.00 0.00 0.00 66 1013.9
20260905013533 85 360 7.0 11.3 0.00 0.00 0.00 66 1013.9
20260905013454 85 360 7.0 11.3 0.00 0.00 0.00 66 1014.0
20260905013335 85 360 7.0 11.3 0.00 0.00 0.00 66 1014.0
20260905013235 85 360 7.0 11.3 0.00 0.00 0.00 66 1013.9
20260905013156 85 360 7.8 12.2 0.00 0.00 0.00 66 1013.9
20260905013055 85 360 7.0 12.2 0.00 0.00 0.00 66 1013.9
20260905012920 85 360 7.0 12.2 0.00 0.00 0.00 66 1013.9
20260905012841 85 360 7.0 12.2 0.00 0.00 0.00 66 1013.9
20260905012719 85 360 7.8 12.2 0.00 0.00 0.00 66 1013.8
20260905012620 85 360 8.7 12.2 0.00 0.00 0.00 66 1013.9
20260905012520 85 360 7.8 12.2 0.00 0.00 0.00 66 1013.9
20260905012421 85 360 7.8 12.2 0.00 0.00 0.00 66 1013.9
20260905012322 85 360 7.0 12.2 0.00 0.00 0.00 66 1013.8
20260905012227 85 360 7.8 12.2 0.00 0.00 0.00 66 1013.9
20260905012127 85 360 7.8 12.2 0.00 0.00 0.00 66 1013.8
20260905012028 85 360 7.0 12.2 0.00 0.00 0.00 67 1013.9
20260905011928 85 360 7.0 12.2 0.00 0.00 0.00 67 1013.8
20260905011848 85 360 6.1 12.2 0.00 0.00 0.00 66 1013.9
20260905011728 86 360 7.8 12.2 0.00 0.00 0.00 66 1013.9
20260905011628 86 360 7.0 11.3 0.00 0.00 0.00 66 1013.9
20260905011549 86 360 7.0 11.3 0.00 0.00 0.00 66 1013.8
20260905011433 86 360 7.0 11.3 0.00 0.00 0.00 66 1013.8
20260905011354 86 360 7.0 11.3 0.00 0.00 0.00 66 1013.9
20260905011233 86 360 7.0 11.3 0.00 0.00 0.00 66 1013.8
20260905011153 86 360 7.8 11.3 0.00 0.00 0.00 66 1013.8
20260905011033 86 360 7.8 10.4 0.00 0.00 0.00 66 1013.8
20260905010933 86 360 7.0 9.6 0.00 0.00 0.00 66 1013.8
20260905010834 86 360 6.1 9.6 0.00 0.00 0.00 66 1013.8
20260905010718 86 360 5.2 9.6 0.00 0.00 0.00 66 1013.8
20260905010616 86 360 5.2 9.6 0.00 0.00 0.00 66 1013.8
20260905010536 86 360 5.2 9.6 0.00 0.00 0.00 65 1013.8
20260905010456 86 360 4.3 13.9 0.00 0.00 0.00 66 1013.8
20260905010356 86 360 4.3 13.9 0.00 0.00 0.00 65 1013.7
20260905010236 86 360 5.2 13.9 0.00 0.00 0.00 65 1013.8
20260905010156 86 360 6.1 13.9 0.00 0.00 0.00 65 1013.8
20260905010035 86 360 6.1 13.9 0.00 0.00 0.00 65 1013.7
20260905005920 86 360 7.0 13.9 0.00 0.00 0.00 65 1013.7
20260905005822 87 360 7.8 13.9 0.00 0.00 0.00 65 1013.8
20260905005721 87 360 8.7 13.9 0.00 0.00 0.00 65 1013.7
20260905005620 87 360 9.6 13.9 0.00 0.00 0.00 65 1013.8
20260905005521 87 360 8.7 13.0 0.00 0.00 0.00 65 1013.6
20260905005422 87 360 8.7 13.9 0.00 0.00 0.00 65 1013.7
20260905005321 87 360 7.8 14.8 0.00 0.00 0.00 64 1013.7
20260905005222 87 360 8.7 14.8 0.00 0.00 0.00 64 1013.7
20260905005126 87 360 8.7 14.8 0.00 0.00 0.00 64 1013.7
20260905005027 87 360 8.7 14.8 0.00 0.00 0.00 64 1013.7
20260905004926 87 360 7.0 14.8 0.00 0.00 0.00 64 1013.7
20260905004827 87 360 7.8 14.8 0.00 0.00 0.00 64 1013.7
20260905004727 87 360 8.7 14.8 0.00 0.00 0.00 64 1013.5
20260905004648 87 360 9.6 14.8 0.00 0.00 0.00 64 1013.6
20260905004527 87 360 8.7 14.8 0.00 0.00 0.00 64 1013.6
20260905004427 87 360 7.8 12.2 0.00 0.00 0.00 64 1013.6
20260905004332 87 360 7.8 12.2 0.00 0.00 0.00 63 1013.6
20260905004233 87 360 7.8 13.0 0.00 0.00 0.00 63 1013.5
20260905004133 87 360 7.8 13.0 0.00 0.00 0.00 64 1013.5
20260905004034 87 360 8.7 13.0 0.00 0.00 0.00 63 1013.4
20260905003934 87 360 8.7 16.5 0.00 0.00 0.00 63 1013.5
20260905003834 87 360 9.6 16.5 0.00 0.00 0.00 63 1013.4
20260905003719 88 154 8.7 16.5 0.00 0.00 0.00 63 1013.4
20260905003617 88 360 7.8 16.5 0.00 0.00 0.00 63 1013.4
20260905003517 88 360 7.8 16.5 0.00 0.00 0.00 62 1013.3
20260905003438 88 360 7.8 16.5 0.00 0.00 0.00 62 1013.3
20260905003318 88 360 7.8 16.5 0.00 0.00 0.00 62 1013.3
20260905003219 88 360 8.7 16.5 0.00 0.00 0.00 62 1013.4
20260905003120 88 360 9.6 16.5 0.00 0.00 0.00 62 1013.3
20260905003024 88 360 9.6 14.8 0.00 0.00 0.00 62 1013.3
20260905002924 88 360 10.4 14.8 0.00 0.00 0.00 62 1013.3
20260905002826 88 360 10.4 14.8 0.00 0.00 0.00 61 1013.3
20260905002726 88 360 7.8 14.8 0.00 0.00 0.00 61 1013.3
20260905002646 88 360 7.0 13.9 0.00 0.00 0.00 61 1013.3
20260905002526 88 360 8.7 13.9 0.00 0.00 0.00 61 1013.3
20260905002426 88 360 9.6 13.9 0.00 0.00 0.00 61 1013.3
20260905002330 88 360 10.4 13.9 0.00 0.00 0.00 61 1013.4
20260905002231 88 360 10.4 13.9 0.00 0.00 0.00 60 1013.3
20260905002132 88 360 10.4 13.9 0.00 0.00 0.00 60 1013.3
20260905002033 89 360 9.6 13.9 0.00 0.00 0.00 60 1013.3
20260905001935 89 360 8.7 13.9 0.00 0.00 0.00 60 1013.3
20260905001835 89 360 8.7 13.9 0.00 0.00 0.00 60 1013.3
20260905001720 89 360 8.7 14.8 0.00 0.00 0.00 60 1013.3
20260905001620 89 150 7.0 14.8 0.00 0.00 0.00 60 1013.2
20260905001541 89 360 7.0 14.8 0.00 0.00 0.00 60 1013.2
20260905001420 89 360 7.8 14.8 0.00 0.00 0.00 60 1013.1
20260905001321 89 360 9.6 14.8 0.00 0.00 0.00 60 1013.1
20260905001221 89 360 9.6 14.8 0.00 0.00 0.00 59 1013.2
20260905001121 89 360 9.6 14.8 0.00 0.00 0.00 59 1013.2
20260905001025 89 143 7.8 14.8 0.00 0.00 0.00 59 1013.1
20260905000926 89 360 7.8 13.0 0.00 0.00 0.00 59 1013.1
20260905000827 89 360 7.0 11.3 0.00 0.00 0.00 59 1013.0
20260905000727 89 360 7.0 15.6 0.00 0.00 0.00 59 1013.1
20260905000626 89 360 7.0 15.6 0.00 0.00 0.00 59 1013.1
20260905000527 89 360 6.1 15.6 0.00 0.00 0.00 59 1013.0
20260905000428 89 360 5.2 15.6 0.00 0.00 0.00 59 1013.1
20260905000333 89 360 6.1 15.6 0.00 0.00 0.00 59 1013.0
20260905000233 89 360 7.0 15.6 0.00 0.00 0.00 59 1013.1
20260905000134 89 360 9.6 15.6 0.00 0.00 0.00 58 1013.0
20260905000035 89 360 9.6 15.6 0.00 0.00 0.00 58 1013.0
20260904235935 89 360 9.6 15.6 0.00 0.00 0.00 58 1013.0
20260904235836 90 360 8.7 14.8 0.00 0.00 0.00 58 1013.0
20260904235720 90 360 6.1 15.6 0.00 0.00 0.00 57 1013.0
20260904235641 90 360 4.3 15.6 0.00 0.00 0.00 56 1013.0
20260904235520 90 138 6.1 15.6 0.00 0.00 0.00 56 1012.9
20260904235421 90 360 7.0 15.6 0.00 0.00 0.00 53 1013.0
20260904235321 90 360 7.8 15.6 0.00 0.00 0.00 53 1012.9
20260904235221 90 360 8.7 15.6 0.00 0.00 0.00 53 1012.9
20260904235122 90 360 7.0 15.6 0.00 0.00 0.00 52 1012.9
20260904235022 90 360 7.0 15.6 0.00 0.00 0.00 52 1012.9
20260904234927 90 360 7.0 15.6 0.00 0.00 0.00 52 1012.9
20260904234828 90 360 8.7 15.6 0.00 0.00 0.00 52 1012.9
20260904234727 90 360 10.4 15.6 0.00 0.00 0.00 51 1012.9
20260904234628 91 360 9.6 13.9 0.00 0.00 0.00 51 1012.9
20260904234528 91 360 8.7 13.0 0.00 0.00 0.00 51 1012.9
20260904234430 91 360 7.8 13.0 0.00 0.00 0.00 51 1012.9
20260904234331 91 360 7.8 13.0 0.00 0.00 0.00 51 1012.9
20260904234216 91 360 7.8 13.0 0.00 0.00 0.00 50 1012.9
20260904234116 91 360 8.7 13.0 0.00 0.00 0.00 50 1013.0
20260904234018 91 360 8.7 13.0 0.00 0.00 0.00 50 1012.9
20260904233917 91 360 8.7 13.0 0.00 0.00 0.00 49 1013.0
20260904233818 91 360 8.7 13.0 0.00 0.00 0.00 49 1012.9
20260904233718 91 360 8.7 13.0 0.00 0.00 0.00 49 1012.9
20260904233623 91 360 7.8 13.0 0.00 0.00 0.00 49 1013.0
20260904233524 91 360 7.8 13.0 0.00 0.00 0.00 48 1012.9
20260904233425 91 143 7.0 10.4 0.00 0.00 0.00 48 1012.9
20260904233325 91 360 7.0 11.3 0.00 0.00 0.00 48 1012.9
20260904233225 91 360 6.1 11.3 0.00 0.00 0.00 48 1012.8
20260904233126 91 360 6.1 11.3 0.00 0.00 0.00 47 1012.8
20260904233026 91 360 7.0 11.3 0.00 0.00 0.00 48 1012.8
20260904232931 91 360 7.8 11.3 0.00 0.00 0.00 47 1012.9
20260904232832 91 360 6.1 11.3 0.00 0.00 0.00 47 1012.9
20260904232732 91 360 6.1 11.3 0.00 0.00 0.00 48 1012.9
20260904232631 91 360 7.0 11.3 0.00 0.00 0.00 48 1012.9
20260904232531 91 360 7.8 11.3 0.00 0.00 0.00 47 1012.8
20260904232432 91 360 7.8 11.3 0.00 0.00 0.00 47 1012.8
20260904232317 91 360 7.8 12.2 0.00 0.00 0.00 47 1012.8
20260904232216 91 360 6.1 12.2 0.00 0.00 0.00 47 1012.8
20260904232138 91 360 6.1 12.2 0.00 0.00 0.00 47 1012.9
20260904232017 91 360 6.1 12.2 0.00 0.00 0.00 47 1012.9
20260904231917 91 360 6.1 13.0 0.00 0.00 0.00 47 1012.9
20260904231837 91 360 5.2 13.0 0.00 0.00 0.00 46 1012.9
20260904231716 91 360 5.2 13.0 0.00 0.00 0.00 46 1012.9
20260904231618 91 360 6.1 13.0 0.00 0.00 0.00 46 1012.9
20260904231523 91 360 7.8 13.0 0.00 0.00 0.00 46 1012.9
20260904231424 91 360 7.8 13.0 0.00 0.00 0.00 46 1013.0
20260904231324 91 360 8.7 13.0 0.00 0.00 0.00 46 1013.0
20260904231225 91 360 7.8 13.0 0.00 0.00 0.00 45 1013.0
20260904231126 91 360 7.8 13.0 0.00 0.00 0.00 45 1012.9
20260904231025 91 360 7.8 12.2 0.00 0.00 0.00 45 1013.0
20260904230926 91 360 8.7 12.2 0.00 0.00 0.00 45 1013.0
20260904230830 91 360 7.8 12.2 0.00 0.00 0.00 44 1013.0
20260904230731 91 360 7.0 12.2 0.00 0.00 0.00 45 1013.0
20260904230652 91 360 5.2 12.2 0.00 0.00 0.00 46 1013.1
20260904230532 91 360 3.5 12.2 0.00 0.00 0.00 46 1013.0
20260904230431 91 360 2.6 10.4 0.00 0.00 0.00 46 1013.0
20260904230332 91 360 2.6 10.4 0.00 0.00 0.00 47 1013.0
20260904230233 91 360 2.6 10.4 0.00 0.00 0.00 48 1013.0
20260904230117 91 360 3.5 10.4 0.00 0.00 0.00 47 1013.1
20260904230018 91 360 4.3 10.4 0.00 0.00 0.00 47 1013.1
20260904225919 91 360 6.1 10.4 0.00 0.00 0.00 47 1013.1
20260904225820 91 360 7.8 10.4 0.00 0.00 0.00 47 1013.1
20260904225719 91 360 7.0 13.9 0.00 0.04 0.00 47 1013.1
20260904225619 91 360 7.0 15.6 0.00 0.04 0.00 47 1013.2
20260904225540 91 360 6.1 15.6 0.00 0.04 0.00 47 1013.2
20260904225419 91 360 7.0 15.6 0.00 0.04 0.00 47 1013.1
20260904225324 91 360 7.0 15.6 0.00 0.04 0.00 47 1013.2
20260904225225 91 360 7.8 15.6 0.00 0.04 0.00 47 1013.2
20260904225125 91 360 7.0 15.6 0.00 0.04 0.00 47 1013.2
20260904225026 91 360 8.7 15.6 0.00 0.04 0.00 46 1013.3
20260904224926 91 360 8.7 15.6 0.00 0.04 0.00 46 1013.2
20260904224827 91 360 8.7 15.6 0.00 0.04 0.00 47 1013.2
20260904224747 92 360 8.7 13.0 0.00 0.04 0.00 47 1013.2
20260904224626 92 360 8.7 13.0 0.00 0.04 0.00 47 1013.2
20260904224530 92 360 7.8 13.0 0.00 0.04 0.00 47 1013.2
20260904224430 92 360 6.1 13.0 0.00 0.04 0.00 47 1013.2
20260904224330 92 360 5.2 13.9 0.00 0.04 0.00 47 1013.1
20260904224231 92 360 5.2 13.9 0.00 0.04 0.00 48 1013.2
20260904224131 92 360 7.0 13.9 0.00 0.04 0.00 48 1013.2
20260904224032 92 360 7.8 13.9 0.00 0.04 0.00 48 1013.2
20260904223916 92 360 8.7 13.9 0.00 0.04 0.00 49 1013.3
20260904223816 92 360 8.7 13.9 0.00 0.04 0.00 48 1013.2
20260904223717 92 360 8.7 13.9 0.00 0.04 0.00 48 1013.2
20260904223637 92 360 7.8 13.9 0.00 0.04 0.00 48 1013.3
20260904223517 92 360 7.0 13.9 0.00 0.04 0.00 50 1013.3
20260904223417 92 360 6.1 14.8 0.00 0.04 0.00 50 1013.2
20260904223318 92 360 6.1 14.8 0.00 0.04 0.00 50 1013.2
20260904223222 91 360 6.1 14.8 0.00 0.04 0.00 51 1013.3
20260904223123 91 360 7.0 14.8 0.00 0.04 0.00 50 1013.3
20260904223024 91 360 8.7 14.8 0.00 0.04 0.00 50 1013.3
20260904222924 91 360 8.7 14.8 0.00 0.04 0.00 50 1013.3
20260904222826 91 360 7.8 14.8 0.00 0.04 0.00 50 1013.3
20260904222726 91 360 8.7 14.8 0.00 0.04 0.00 49 1013.3
20260904222631 91 360 8.7 14.8 0.00 0.04 0.00 49 1013.3
20260904222551 91 360 9.6 15.6 0.00 0.04 0.00 50 1013.3
20260904222430 91 360 9.6 17.4 0.00 0.04 0.00 49 1013.3
20260904222331 91 360 9.6 17.4 0.00 0.04 0.00 49 1013.3
20260904222231 91 360 9.6 17.4 0.00 0.04 0.00 49 1013.2
20260904222132 92 360 9.6 17.4 0.00 0.04 0.00 50 1013.3
20260904222033 92 360 9.6 17.4 0.00 0.04 0.00 51 1013.3
20260904221938 92 360 8.7 17.4 0.00 0.04 0.00 51 1013.4
20260904221817 91 360 8.7 17.4 0.00 0.04 0.00 52 1013.3
20260904221718 91 360 8.7 17.4 0.00 0.04 0.00 51 1013.3
20260904221620 92 360 8.7 17.4 0.00 0.04 0.00 52 1013.3
20260904221520 92 360 6.1 15.6 0.00 0.04 0.00 53 1013.3
20260904221420 92 360 5.2 15.6 0.00 0.04 0.00 53 1013.3
20260904221321 92 360 6.1 15.6 0.00 0.04 0.00 53 1013.3
20260904221225 92 360 7.8 15.6 0.00 0.04 0.00 52 1013.3
20260904221125 92 360 8.7 15.6 0.00 0.04 0.00 52 1013.2
20260904221027 92 360 7.8 15.6 0.00 0.04 0.00 51 1013.3
20260904220926 92 360 4.3 15.6 0.00 0.04 0.00 51 1013.2
20260904220827 92 360 3.5 10.4 0.00 0.04 0.00 51 1013.3
20260904220727 92 360 3.5 10.4 0.00 0.04 0.00 51 1013.3
20260904220626 92 360 6.1 10.4 0.00 0.04 0.00 51 1013.2
20260904220530 92 360 5.2 10.4 0.00 0.04 0.00 52 1013.3
20260904220430 92 360 4.3 10.4 0.00 0.04 0.00 53 1013.3
20260904220331 91 360 4.3 10.4 0.00 0.04 0.00 53 1013.3
20260904220232 92 360 5.2 11.3 0.00 0.04 0.00 53 1013.4
20260904220131 91 360 5.2 11.3 0.00 0.04 0.00 52 1013.4
20260904220032 91 360 5.2 11.3 0.00 0.04 0.00 52 1013.4
20260904215916 91 360 5.2 11.3 0.00 0.04 0.00 52 1013.4
20260904215818 91 360 6.1 12.2 0.00 0.04 0.00 52 1013.3
20260904215718 91 360 6.1 12.2 0.00 0.04 0.00 52 1013.4
20260904215618 91 360 5.2 12.2 0.00 0.04 0.00 52 1013.4
20260904215518 91 360 6.1 12.2 0.00 0.04 0.00 52 1013.5
20260904215438 91 360 5.2 12.2 0.00 0.04 0.00 52 1013.4
20260904215337 91 360 3.5 12.2 0.00 0.04 0.00 52 1013.4
20260904215216 91 360 5.2 12.2 0.00 0.04 0.00 52 1013.4
20260904215121 91 360 6.1 12.2 0.00 0.04 0.00 50 1013.5
20260904215022 91 360 7.0 11.3 0.00 0.04 0.00 50 1013.4
20260904214922 91 360 6.1 11.3 0.00 0.04 0.00 53 1013.5
20260904214843 91 360 6.1 11.3 0.00 0.04 0.00 53 1013.5
20260904214716 91 360 4.3 13.9 0.00 0.04 0.00 53 1013.5
20260904214618 91 360 4.3 13.9 0.00 0.04 0.00 55 1013.4
20260904214519 91 360 6.1 13.9 0.00 0.04 0.00 56 1013.4
20260904214422 91 360 7.0 13.9 0.00 0.04 0.00 56 1013.5
20260904214323 90 360 7.8 13.9 0.00 0.04 0.00 56 1013.6
20260904214224 90 360 7.0 13.9 0.00 0.04 0.00 55 1013.6
20260904214124 90 360 8.7 13.9 0.00 0.04 0.00 55 1013.6
20260904214025 90 360 9.6 13.9 0.00 0.04 0.00 54 1013.6
20260904213946 91 360 9.6 13.0 0.00 0.04 0.00 55 1013.7
20260904213825 91 360 7.0 12.2 0.00 0.04 0.00 56 1013.7
20260904213729 91 360 4.3 13.9 0.00 0.04 0.00 57 1013.6
20260904213630 91 360 4.3 13.9 0.00 0.04 0.00 57 1013.6
20260904213532 90 360 6.1 13.9 0.00 0.04 0.00 57 1013.7
20260904213452 91 360 7.0 13.9 0.00 0.04 0.00 56 1013.7
20260904213332 91 360 7.0 13.9 0.00 0.04 0.00 56 1013.7
20260904213233 91 360 7.8 13.9 0.00 0.04 0.00 54 1013.8
20260904213116 91 360 9.6 13.9 0.00 0.04 0.00 54 1013.7
20260904213037 91 360 9.6 13.9 0.00 0.04 0.00 56 1013.8
20260904212917 91 360 9.6 13.9 0.00 0.04 0.00 54 1013.8
20260904212839 91 360 8.7 16.5 0.00 0.04 0.00 57 1013.8
20260904212718 91 360 7.8 16.5 0.00 0.04 0.00 57 1013.8
20260904212618 90 360 7.0 16.5 0.00 0.04 0.00 57 1013.8
20260904212519 90 360 7.8 16.5 0.00 0.04 0.00 56 1013.8
20260904212420 90 360 6.1 16.5 0.00 0.04 0.00 56 1013.8
20260904212325 90 360 7.0 16.5 0.00 0.04 0.00 55 1013.8
20260904212226 90 360 6.1 16.5 0.00 0.04 0.00 56 1013.9
20260904212126 91 360 8.7 16.5 0.00 0.04 0.00 56 1013.8
20260904212027 91 360 8.7 16.5 0.00 0.04 0.00 55 1014.0
20260904211928 91 165 7.0 15.6 0.00 0.04 0.00 55 1014.0
20260904211848 91 360 6.1 15.6 0.00 0.04 0.00 54 1014.0
20260904211728 91 360 6.1 15.6 0.00 0.04 0.00 54 1013.9
20260904211632 91 360 7.8 15.6 0.00 0.04 0.00 54 1013.8
20260904211532 91 360 7.8 15.6 0.00 0.04 0.00 55 1014.0
20260904211432 91 360 7.0 15.6 0.00 0.04 0.00 56 1014.0
20260904211332 91 360 7.8 15.6 0.00 0.04 0.00 55 1013.9
20260904211232 91 360 8.7 15.6 0.00 0.04 0.00 56 1013.9
20260904211133 91 360 8.7 17.4 0.00 0.04 0.00 56 1013.9
20260904211017 91 360 8.7 17.4 0.00 0.04 0.00 55 1014.0
20260904210918 91 360 8.7 17.4 0.00 0.04 0.00 56 1014.0
20260904210819 90 360 8.7 17.4 0.00 0.04 0.00 56 1013.8
20260904210719 90 360 8.7 17.4 0.00 0.04 0.00 57 1013.9
20260904210619 90 360 10.4 17.4 0.00 0.04 0.00 56 1013.9
20260904210520 90 360 10.4 17.4 0.00 0.04 0.00 56 1013.9
20260904210425 90 360 10.4 17.4 0.00 0.04 0.00 57 1014.0
20260904210325 90 360 11.3 17.4 0.00 0.04 0.00 57 1013.9
20260904210226 90 360 8.7 17.4 0.00 0.04 0.00 57 1013.9
20260904210148 90 360 7.0 17.4 0.00 0.04 0.00 59 1013.9
20260904210026 90 360 7.8 16.5 0.00 0.04 0.00 58 1013.9
20260904205927 90 360 11.3 16.5 0.00 0.04 0.00 58 1014.0
20260904205829 90 360 12.2 16.5 0.00 0.04 0.00 58 1013.9
20260904205729 90 360 12.2 16.5 0.00 0.04 0.00 58 1014.0
20260904205632 91 360 10.4 16.5 0.00 0.04 0.00 57 1014.0
20260904205533 91 360 7.8 16.5 0.00 0.04 0.00 57 1014.0
20260904205433 90 360 7.0 16.5 0.00 0.04 0.00 57 1014.0
20260904205354 90 360 6.1 16.5 0.00 0.04 0.00 58 1013.9
20260904205235 90 360 7.0 16.5 0.00 0.04 0.00 58 1014.0
20260904205136 90 360 8.7 16.5 0.00 0.04 0.00 57 1014.0
20260904205035 90 360 9.6 16.5 0.00 0.04 0.00 57 1014.0
20260904204919 90 360 7.8 13.9 0.00 0.04 0.00 58 1014.0
20260904204840 90 360 9.6 13.0 0.00 0.04 0.00 57 1014.0
20260904204720 91 360 7.8 13.0 0.00 0.04 0.00 57 1014.0
20260904204621 91 360 8.7 13.0 0.00 0.04 0.00 56 1014.1
20260904204521 91 360 8.7 13.0 0.00 0.04 0.00 55 1014.0
20260904204421 91 360 8.7 13.0 0.00 0.04 0.00 55 1014.1
20260904204322 91 360 8.7 13.0 0.00 0.04 0.00 55 1014.1
20260904204227 91 360 7.8 13.0 0.00 0.04 0.00 56 1014.1
20260904204128 91 360 7.8 13.0 0.00 0.04 0.00 56 1014.3
20260904204049 91 360 7.8 13.0 0.00 0.04 0.00 56 1014.2
20260904203927 91 360 7.8 13.0 0.00 0.04 0.00 56 1014.2
20260904203828 91 360 8.7 13.0 0.00 0.04 0.00 56 1014.2
20260904203730 91 360 7.8 12.2 0.00 0.04 0.00 56 1014.2
20260904203629 91 360 6.1 12.2 0.00 0.04 0.00 55 1014.2
20260904203534 91 360 4.3 12.2 0.00 0.04 0.00 56 1014.2
20260904203434 91 360 5.2 12.2 0.00 0.04 0.00 57 1014.3
20260904203335 91 360 6.1 13.0 0.00 0.04 0.00 56 1014.3
20260904203217 91 360 7.0 13.9 0.00 0.04 0.00 57 1014.2
20260904203118 91 360 6.1 13.9 0.00 0.04 0.00 58 1014.3
20260904203038 91 360 7.0 13.9 0.00 0.04 0.00 57 1014.3
20260904202921 91 360 7.0 13.9 0.00 0.04 0.00 57 1014.2
20260904202843 91 360 7.0 13.9 0.00 0.04 0.00 57 1014.3
20260904202722 91 360 8.7 13.9 0.00 0.04 0.00 56 1014.3
20260904202622 92 360 7.8 13.9 0.00 0.04 0.00 56 1014.3
20260904202522 92 360 7.8 13.9 0.00 0.04 0.00 56 1014.4
20260904202421 92 360 6.1 10.4 0.00 0.04 0.00 56 1014.3
20260904202323 91 360 6.1 10.4 0.00 0.04 0.00 57 1014.4
20260904202243 91 360 5.2 8.7 0.00 0.04 0.00 57 1014.3
20260904202143 91 360 5.2 8.7 0.00 0.04 0.00 57 1014.4
20260904202027 91 360 4.3 8.7 0.00 0.04 0.00 57 1014.3
20260904201926 91 136 4.3 10.4 0.00 0.04 0.00 57 1014.4
20260904201827 90 360 3.5 10.4 0.00 0.04 0.00 61 1014.4
20260904201729 90 360 2.6 10.4 0.00 0.04 0.00 61 1014.4
20260904201629 90 360 1.7 10.4 0.00 0.04 0.00 61 1014.4
20260904201529 90 360 1.7 15.6 0.00 0.04 0.00 61 1014.4
20260904201434 90 360 3.5 15.6 0.00 0.04 0.00 61 1014.5
20260904201316 89 161 5.2 15.6 0.00 0.04 0.00 61 1014.4
20260904201216 89 360 6.1 15.6 0.00 0.04 0.00 60 1014.5
20260904201116 90 360 7.0 15.6 0.00 0.04 0.00 59 1014.5
20260904201018 90 360 7.8 15.6 0.00 0.04 0.00 60 1014.6
20260904200939 90 360 9.6 15.6 0.00 0.04 0.00 59 1014.5
20260904200818 90 360 9.6 15.6 0.00 0.04 0.00 58 1014.5
20260904200723 90 360 10.4 15.6 0.00 0.04 0.00 58 1014.6
20260904200643 90 360 8.7 15.6 0.00 0.04 0.00 58 1014.5
20260904200516 90 360 6.1 13.0 0.00 0.04 0.00 60 1014.6
20260904200416 90 360 6.1 13.0 0.00 0.04 0.00 59 1014.6
20260904200317 90 360 7.8 13.0 0.00 0.04 0.00 58 1014.5
20260904200217 90 360 9.6 13.0 0.00 0.04 0.00 58 1014.6
20260904200121 90 360 10.4 13.0 0.00 0.04 0.00 57 1014.6
20260904200022 91 360 8.7 13.0 0.00 0.04 0.00 57 1014.6
20260904195942 91 360 8.7 13.0 0.00 0.04 0.00 59 1014.6
20260904195824 91 360 7.8 13.0 0.00 0.04 0.00 59 1014.5
20260904195722 91 360 7.8 13.0 0.00 0.04 0.00 58 1014.5
20260904195643 91 360 7.8 13.0 0.00 0.04 0.00 57 1014.6
20260904195522 91 360 7.8 13.0 0.00 0.04 0.00 59 1014.6
20260904195443 91 360 6.1 13.0 0.00 0.04 0.00 60 1014.6
20260904195327 91 360 4.3 12.2 0.00 0.04 0.00 60 1014.6
20260904195248 91 360 4.3 12.2 0.00 0.04 0.00 61 1014.5
20260904195127 91 360 5.2 12.2 0.00 0.04 0.00 61 1014.7
20260904195027 91 360 7.0 12.2 0.00 0.04 0.00 61 1014.6
20260904194928 91 360 7.0 12.2 0.00 0.04 0.00 60 1014.7
20260904194829 91 360 6.1 12.2 0.00 0.04 0.00 60 1014.7
20260904194729 91 360 3.5 13.0 0.00 0.04 0.00 62 1014.6
20260904194634 91 360 2.6 13.0 0.00 0.04 0.00 61 1014.6
20260904194534 90 360 1.7 13.0 0.00 0.04 0.00 61 1014.6
20260904194416 90 360 4.3 13.0 0.00 0.04 0.00 61 1014.7
20260904194316 90 360 7.0 13.0 0.00 0.04 0.00 59 1014.8
20260904194237 90 360 7.8 13.9 0.00 0.04 0.00 59 1014.8
20260904194135 90 360 7.8 13.9 0.00 0.04 0.00 59 1014.8
20260904194016 90 360 6.1 13.9 0.00 0.04 0.00 60 1014.8
20260904193921 90 360 5.2 13.9 0.00 0.04 0.00 62 1014.9
20260904193822 90 360 4.3 13.9 0.00 0.04 0.00 62 1014.9
20260904193723 90 360 4.3 13.9 0.00 0.04 0.00 62 1015.0
20260904193623 90 360 5.2 13.9 0.00 0.04 0.00 62 1014.9
20260904193523 90 360 7.0 13.9 0.00 0.04 0.00 61 1015.0
20260904193423 90 360 7.0 12.2 0.00 0.04 0.00 61 1014.9
20260904193324 90 360 7.0 12.2 0.00 0.04 0.00 61 1014.9
20260904193228 90 360 7.0 12.2 0.00 0.04 0.00 63 1015.0
20260904193129 90 360 7.0 13.0 0.00 0.04 0.00 64 1014.9
20260904193028 90 165 7.0 13.0 0.00 0.04 0.00 64 1014.9
20260904192928 89 360 7.8 13.0 0.00 0.04 0.00 64 1014.9
20260904192829 89 360 7.0 13.0 0.00 0.04 0.00 64 1014.9
20260904192727 89 360 7.0 13.0 0.00 0.04 0.00 64 1014.9
20260904192628 89 360 6.1 13.9 0.00 0.04 0.00 64 1014.9
20260904192531 89 360 5.2 13.9 0.00 0.04 0.00 64 1014.9
20260904192432 90 360 4.3 14.8 0.00 0.04 0.00 64 1015.0
20260904192333 90 360 4.3 14.8 0.00 0.04 0.00 65 1015.0
20260904192233 90 360 3.5 14.8 0.00 0.04 0.00 65 1014.9
20260904192133 89 109 4.3 14.8 0.00 0.04 0.00 65 1015.0
20260904192054 89 360 7.0 14.8 0.00 0.04 0.00 66 1015.1
20260904191932 88 157 7.8 14.8 0.00 0.04 0.00 65 1015.2
20260904191817 88 360 8.7 14.8 0.00 0.04 0.00 66 1015.1
20260904191717 88 360 9.6 14.8 0.00 0.04 0.00 66 1015.2
20260904191617 88 360 7.8 14.8 0.00 0.04 0.00 66 1015.2
20260904191538 88 131 7.0 14.8 0.00 0.04 0.00 67 1015.1
20260904191418 88 360 5.2 12.2 0.00 0.04 0.00 67 1015.1
20260904191318 88 360 4.3 12.2 0.00 0.04 0.00 68 1015.2
20260904191219 88 360 5.2 12.2 0.00 0.04 0.00 68 1015.2
20260904191143 88 360 5.2 12.2 0.00 0.04 0.00 68 1015.2
20260904191016 88 169 7.0 12.2 0.00 0.04 0.00 67 1015.2